GFSNE_sfc_temp_000.txt.gz
Temp
82 81 82 86 87 86 84 81 78 73 76 82 82 85 85 86 83 83 82 76 71 69 68 67 67 68 69 69 69 69 70 70 71 71 72 73 76 78
84 82 81 85 85 85 85 84 83 78 74 82 83 84 84 83 82 81 81 74 73 70 68 67 67 67 68 68 68 68 69 69 69 69 70 71 72 75
81 80 79 80 83 85 86 84 82 81 76 79 83 83 80 79 81 81 82 81 83 70 69 67 66 66 67 67 67 67 67 67 67 68 69 70 71 72
80 80 80 84 81 80 83 79 80 79 77 71 77 79 79 80 79 78 80 84 83 77 69 67 66 66 65 65 65 65 64 64 65 65 67 68 70 71
81 81 81 81 79 81 80 81 82 81 80 78 75 80 81 81 79 76 79 80 82 76 70 69 67 66 65 63 63 62 60 60 61 62 63 65 67 69
81 80 80 80 79 79 79 78 78 78 78 77 75 78 76 76 77 73 75 83 81 85 78 74 72 72 68 65 64 64 60 58 59 59 60 61 63 65
81 81 82 79 74 74 80 79 77 77 75 75 74 77 73 72 72 78 77 79 75 81 81 81 82 82 81 75 75 71 65 61 59 58 58 58 59 61
79 79 78 74 73 67 67 66 69 72 71 74 73 73 71 70 75 76 74 72 70 80 76 76 79 78 80 81 74 68 66 63 61 59 58 57 57 58
78 76 75 74 70 77 69 65 65 64 64 70 69 70 68 72 72 66 69 69 70 75 72 70 78 76 80 82 70 65 63 62 62 61 59 58 56 56
77 75 71 69 69 74 76 75 76 75 75 74 72 73 73 72 69 69 67 66 67 71 72 69 77 76 78 79 69 65 64 63 62 61 60 58 55 54
70 71 68 68 65 63 71 72 73 74 70 63 61 60 59 58 61 68 68 65 64 67 73 72 74 73 73 70 70 66 63 61 60 60 59 58 54 53
67 67 62 65 59 58 69 71 70 72 74 72 72 69 64 70 60 67 65 61 64 68 73 70 69 63 54 63 68 68 67 64 58 58 58 57 53 66
68 70 74 59 56 54 54 71 67 65 68 70 74 75 75 75 76 75 72 70 68 67 72 69 60 58 54 54 60 63 66 66 68 68 55 55 52 61
72 77 67 54 54 53 57 56 55 56 72 73 72 72 73 73 74 74 70 69 71 67 69 67 58 54 53 52 53 59 61 62 64 67 76 63 52 53
80 59 54 52 51 52 54 56 54 70 71 70 70 71 72 73 70 71 72 71 70 71 71 67 60 56 54 54 54 58 58 61 64 70 74 74 65 63
58 69 63 57 52 57 62 61 69 71 69 68 69 70 71 71 70 72 70 70 70 70 71 69 61 59 55 56 58 58 60 60 63 67 68 69 73 75
67 74 72 73 72 71 71 70 70 70 68 69 68 68 68 69 69 70 69 69 65 63 62 70 64 60 57 57 56 56 56 57 63 64 64 63 64 72
67 73 72 72 71 71 70 69 70 65 68 67 67 67 66 66 66 67 69 67 62 64 56 62 61 57 56 57 58 56 56 56 56 63 63 62 62 66
71 74 71 72 71 70 69 69 68 69 64 66 66 66 66 66 65 66 67 66 65 65 55 62 59 54 50 49 56 55 54 54 55 57 65 63 64 64
74 73 71 71 69 68 68 68 67 67 67 66 65 66 66 65 65 65 65 64 65 65 54 61 56 52 49 51 51 56 52 53 54 56 61 65 68 61
74 72 72 71 70 68 67 66 64 65 63 63 65 66 66 66 65 66 66 57 59 63 58 51 53 54 55 55 52 53 56 53 53 54 55 58 64 63
73 71 70 70 68 67 66 65 64 65 65 66 66 65 66 66 66 66 67 66 66 65 51 49 59 52 54 51 51 51 52 53 55 55 54 54 51 56
70 70 70 68 67 66 65 65 66 66 67 65 65 65 65 65 66 67 68 69 69 65 61 64 56 51 52 51 50 51 51 51 51 51 54 54 54 54

GFSNE_sfc_temp_003.txt.gz
Temp
82 81 82 85 87 87 85 76 71 69 72 81 82 85 86 85 84 84 83 78 73 70 69 68 68 69 69 70 70 70 70 70 70 70 70 71 72 74
84 83 82 84 85 85 85 84 83 78 74 81 82 84 85 85 84 84 83 76 71 70 69 68 68 68 69 69 69 69 69 69 69 69 69 69 70 71
81 81 81 81 83 85 86 85 82 81 76 79 82 83 78 80 81 81 83 83 83 72 70 68 67 67 68 68 68 68 68 68 68 68 69 69 69 70
81 80 80 84 79 79 83 78 79 80 77 72 76 78 78 80 81 79 81 84 84 79 69 67 66 66 66 66 66 65 65 65 65 66 67 68 68 68
82 81 81 81 79 81 79 80 80 78 79 78 76 77 79 77 78 80 77 76 78 77 71 69 67 66 65 65 64 63 61 60 62 62 63 64 65 67
82 82 82 79 77 76 77 76 78 75 78 78 77 76 78 74 79 78 75 75 76 83 79 75 73 72 67 65 65 64 61 59 59 60 60 61 62 63
81 82 81 79 73 71 76 70 73 74 78 77 76 76 75 77 72 77 75 77 73 81 80 81 82 82 81 75 74 69 65 62 60 59 58 58 58 59
76 79 75 76 76 67 67 66 65 65 68 70 72 73 70 72 72 70 70 72 70 79 76 76 79 78 80 81 75 69 67 63 61 60 59 58 57 57
77 76 79 82 74 78 69 64 64 64 64 70 67 69 68 71 71 69 69 69 69 74 72 70 75 75 79 83 69 65 65 65 62 61 60 59 58 57
80 79 78 77 76 69 73 69 69 75 72 72 71 72 73 73 70 69 67 67 70 74 74 67 73 74 78 81 69 65 66 65 62 61 61 59 57 56
79 80 76 73 67 63 66 66 70 72 73 66 64 62 61 60 63 69 68 69 67 69 72 71 74 73 75 75 76 69 63 61 60 60 60 58 56 54
78 76 64 68 60 60 70 71 70 73 75 76 73 68 63 67 60 66 70 63 67 66 73 69 70 70 66 70 72 70 62 61 60 58 58 57 55 64
78 72 76 58 58 56 55 70 69 65 70 71 73 74 76 76 77 76 74 71 68 67 72 69 67 66 60 61 63 62 60 63 65 64 59 54 53 59
76 79 71 56 57 56 58 58 58 58 71 72 72 73 74 74 75 74 70 70 71 68 69 67 62 60 59 56 54 60 60 61 60 60 62 61 53 53
67 57 56 54 54 54 54 57 56 67 70 68 70 71 73 74 71 70 71 70 70 70 71 66 61 61 61 56 54 55 56 59 61 61 62 66 64 58
59 68 64 61 55 58 63 61 67 69 70 69 68 71 72 71 70 71 69 69 68 70 69 70 64 62 58 58 55 54 57 54 57 59 60 67 68 69
72 76 72 72 73 70 69 68 68 71 70 70 69 69 69 69 68 70 68 67 66 66 65 67 64 64 64 58 54 55 55 55 56 57 57 63 65 69
70 72 74 74 73 73 70 70 72 69 70 69 68 67 67 66 66 67 68 67 65 66 66 66 64 61 59 60 61 55 55 54 54 56 57 60 62 65
70 74 74 73 73 73 72 72 70 71 66 67 67 66 66 66 65 66 66 66 66 66 65 60 59 55 49 48 56 56 53 53 52 54 55 56 61 64
71 74 74 73 72 71 71 70 70 69 69 68 67 67 67 66 65 65 66 65 65 65 64 62 53 53 50 50 51 54 53 52 51 51 53 55 58 60
76 74 74 73 72 71 70 69 67 66 65 64 65 67 67 66 65 66 66 58 60 67 63 58 58 55 55 61 54 53 56 53 52 52 52 52 55 62
76 74 74 72 71 69 68 67 66 66 67 67 67 66 66 66 66 66 67 66 67 67 65 64 62 53 58 53 50 51 51 54 54 54 54 52 51 50
74 73 72 72 70 68 67 66 67 67 68 67 66 66 66 65 67 67 68 69 69 69 67 58 63 53 59 50 51 52 51 50 51 50 51 53 54 54

GFSNE_sfc_temp_006.txt.gz
Temp
76 75 74 75 76 76 75 73 68 64 65 71 72 75 75 76 76 76 74 76 72 71 69 68 69 69 70 70 70 70 70 71 71 70 70 71 72 73
76 75 74 75 76 76 75 74 72 69 65 71 72 74 76 77 78 75 76 76 72 70 69 68 68 69 69 69 69 69 69 69 69 69 69 69 70 70
75 75 75 77 75 74 75 74 73 72 68 69 72 73 72 72 74 74 75 73 74 70 69 69 68 68 69 68 68 68 68 68 68 69 69 69 69 69
75 74 75 78 73 73 73 72 72 72 69 67 69 70 70 72 72 71 75 79 74 77 71 68 67 66 66 66 66 66 65 65 66 66 67 68 69 69
75 74 74 74 73 72 72 71 70 70 68 66 66 70 70 70 69 70 70 72 75 75 71 69 67 66 65 64 64 63 61 61 62 63 64 65 66 67
77 76 76 74 74 73 72 71 70 68 66 63 63 64 69 70 70 67 66 69 69 77 76 73 71 68 67 65 65 64 61 60 59 60 60 61 62 64
75 77 76 76 73 71 69 69 70 67 65 64 62 64 68 67 64 67 65 67 68 71 70 69 71 69 71 69 68 68 64 62 60 59 59 58 58 60
72 75 76 72 71 67 66 67 69 67 64 61 61 61 65 65 65 64 65 64 63 69 65 67 69 68 70 72 71 69 67 65 62 60 59 58 58 59
72 73 74 76 71 74 68 66 65 65 66 66 63 64 63 65 65 64 63 62 62 66 65 63 67 66 69 74 68 67 65 62 61 60 60 59 58 58
73 73 70 72 73 73 71 69 67 68 66 65 64 66 66 67 66 64 62 61 63 65 65 60 64 65 69 69 67 66 64 63 64 63 60 58 56 55
73 73 72 73 69 62 68 67 67 68 71 64 65 63 63 62 62 63 61 60 61 63 65 64 64 62 65 66 69 66 64 61 60 59 60 60 58 56
71 72 64 69 63 60 66 67 66 67 68 69 68 64 61 64 61 62 64 60 61 60 64 60 62 61 58 65 65 67 66 63 59 57 58 57 56 59
72 70 73 59 58 57 58 65 63 60 65 66 67 67 68 68 68 68 64 62 60 60 65 62 61 61 57 57 63 65 65 64 63 60 57 55 54 56
69 70 63 55 56 58 56 57 57 58 64 65 65 65 66 65 65 64 63 63 63 61 63 62 60 57 56 56 55 62 64 63 61 60 60 58 56 55
70 59 55 53 57 55 56 58 57 62 62 63 63 64 63 64 64 63 64 63 62 62 65 63 60 60 59 55 55 57 56 58 58 57 57 57 57 59
59 60 62 62 60 60 61 58 61 63 63 63 62 63 64 62 61 61 59 59 59 60 62 65 62 60 58 56 56 56 57 54 56 56 55 55 57 58
66 68 65 66 66 64 64 65 64 63 63 64 62 61 60 60 59 60 58 58 57 58 60 63 62 61 60 57 54 56 55 55 55 54 53 53 56 58
67 68 66 68 66 64 62 62 63 63 64 62 61 60 59 58 58 58 58 57 57 58 58 59 58 58 57 58 61 55 55 53 53 53 53 52 53 57
68 68 68 69 68 67 66 66 65 65 62 62 61 60 59 59 58 57 57 57 57 58 60 59 55 52 50 49 56 58 53 53 52 51 52 51 50 53
67 68 69 69 68 67 66 65 64 63 62 61 59 59 60 59 58 57 58 57 57 58 58 59 55 54 50 49 51 55 54 53 51 50 50 51 54 56
67 66 70 70 68 67 66 65 63 62 59 58 58 59 60 59 58 59 59 55 56 58 57 56 57 56 54 55 52 53 57 54 52 50 50 48 48 50
72 70 70 68 66 65 64 63 62 61 60 60 60 60 59 60 59 60 60 59 58 59 58 59 57 57 55 51 49 51 53 54 55 55 53 51 47 44
70 71 69 68 67 65 64 63 62 62 62 62 61 60 59 59 59 60 61 62 62 60 58 58 59 55 55 52 51 49 50 50 50 48 49 52 52 52

GFSNE_sfc_temp_009.txt.gz
Temp
68 68 68 68 68 68 70 67 63 57 59 64 67 69 70 71 72 71 70 72 70 70 69 68 68 69 70 71 71 71 71 71 71 71 71 71 72 73
69 68 68 67 68 69 71 67 67 67 60 64 66 68 71 74 74 73 72 73 72 69 68 68 68 69 69 69 69 69 70 70 70 70 70 70 70 71
69 68 68 68 67 70 67 67 69 67 61 64 66 68 68 69 71 70 72 71 71 70 69 68 67 67 68 69 68 68 68 68 68 69 69 69 70 70
68 67 67 72 67 67 69 68 66 64 62 61 64 65 66 68 68 67 71 75 71 74 70 68 66 66 66 66 66 66 65 65 65 66 68 69 69 69
69 69 69 68 66 66 68 68 67 66 63 61 61 64 66 66 68 66 65 67 71 73 69 68 67 66 65 64 64 63 61 61 62 62 63 65 67 68
69 72 71 69 68 67 68 67 66 65 63 62 60 61 62 67 67 63 62 64 65 72 71 70 69 68 67 64 63 63 60 59 58 59 60 61 62 64
70 72 72 72 71 69 66 67 67 65 63 61 59 58 61 62 63 62 61 62 63 64 65 65 65 64 65 66 67 67 64 61 60 59 59 58 58 59
70 71 72 72 71 68 67 68 68 64 60 59 58 58 58 62 60 59 59 58 56 64 59 63 64 63 65 65 67 66 65 64 62 60 60 58 58 58
71 69 71 71 68 68 66 65 65 65 66 63 61 58 59 60 60 58 58 57 56 63 56 58 59 58 64 66 65 65 63 62 63 61 60 59 58 57
70 69 67 69 69 66 66 64 65 64 63 63 61 64 61 62 61 61 59 56 56 57 58 53 57 56 60 60 63 64 63 62 60 60 59 58 57 55
69 68 67 68 66 62 64 64 63 62 66 62 62 62 61 60 60 57 56 52 52 53 57 54 57 54 56 59 60 64 61 59 60 60 59 58 56 54
65 69 65 66 62 60 62 61 60 61 60 60 60 60 60 61 61 58 62 57 51 51 57 54 53 53 55 55 57 62 62 60 58 57 57 56 54 57
63 63 65 61 57 57 59 61 59 55 58 56 57 58 59 59 60 61 61 58 53 52 58 54 51 50 49 50 55 60 62 62 63 61 58 55 54 54
63 63 57 55 55 58 55 55 56 57 54 54 54 54 55 57 58 59 58 57 56 56 56 54 51 50 48 55 57 58 61 61 61 59 58 57 55 53
62 60 54 54 55 54 56 56 58 53 52 52 52 53 56 61 56 56 57 56 55 56 59 54 52 55 53 54 52 55 55 56 58 55 57 56 56 58
58 56 56 55 55 56 55 54 52 53 54 53 53 54 54 54 54 53 51 51 50 52 56 56 55 57 52 52 52 53 54 51 56 56 56 56 56 56
56 54 54 54 54 53 54 55 55 57 54 54 54 52 52 52 51 51 50 50 47 47 50 53 56 56 58 55 54 53 52 52 55 54 53 52 53 54
58 57 55 56 56 56 55 56 58 60 58 54 52 51 51 50 50 50 49 48 47 48 48 49 51 49 49 52 58 52 52 52 54 54 53 50 50 53
58 58 58 56 56 56 55 55 54 54 53 51 50 50 50 50 51 49 49 48 48 48 52 47 48 47 46 46 54 56 52 53 52 52 51 50 49 50
57 57 56 56 56 56 55 54 52 52 51 50 50 49 49 49 49 49 49 47 47 48 49 48 48 48 47 47 49 54 52 52 50 49 49 50 51 54
56 56 62 60 56 55 54 53 52 51 51 50 49 48 49 48 48 49 48 50 49 48 47 47 51 56 50 50 48 49 54 53 52 50 48 45 46 47
57 57 61 60 55 54 53 52 52 51 49 48 48 48 48 48 49 49 48 48 49 48 47 50 51 49 52 47 46 47 47 51 53 54 53 50 45 42
59 58 57 56 55 54 53 52 52 51 49 49 49 48 48 48 49 48 49 50 49 48 48 48 49 49 47 47 47 45 46 46 48 48 48 51 51 51

GFSNE_sfc_temp_012.txt.gz
Temp
65 65 65 65 65 65 65 65 62 56 57 62 63 66 67 70 71 69 69 70 70 69 68 67 68 69 70 71 71 71 71 71 71 71 71 71 73 74
66 65 64 65 65 65 65 64 64 64 59 61 64 65 67 71 72 71 69 71 70 69 69 67 67 68 69 69 69 70 70 70 70 70 70 70 70 71
66 66 66 65 65 64 64 64 63 63 62 63 63 65 66 66 68 67 69 69 68 69 68 67 66 67 68 68 68 68 68 68 69 69 70 70 69 70
66 65 65 69 67 64 67 64 64 62 60 61 61 63 65 66 66 65 69 72 68 71 68 67 66 66 65 65 65 65 65 65 66 66 67 69 69 69
67 66 66 68 66 64 64 63 63 65 63 60 61 62 63 63 64 64 65 65 68 71 69 67 66 65 64 63 62 61 59 59 61 62 63 64 66 67
67 67 67 68 67 66 65 65 65 63 64 62 62 61 60 61 61 61 60 61 62 69 69 68 67 67 66 65 64 63 60 58 58 58 59 60 61 63
66 67 67 70 70 69 66 64 63 64 63 62 61 59 58 58 58 59 58 58 59 60 60 60 60 60 62 63 67 67 63 61 60 59 58 57 58 59
66 66 68 71 70 69 67 66 67 65 63 60 58 57 58 57 58 58 57 56 54 59 57 58 58 58 59 60 64 64 62 62 60 59 59 58 57 57
66 66 68 70 67 68 65 64 64 65 66 62 59 58 58 58 58 57 56 56 55 58 55 52 55 55 58 62 63 63 62 62 61 60 59 58 57 57
67 67 68 67 66 65 64 64 64 63 64 63 62 63 60 61 59 60 58 56 55 56 55 51 54 54 57 58 62 62 62 61 60 59 58 57 55 54
66 67 68 67 63 61 65 62 62 62 63 61 61 60 59 59 60 57 55 52 51 52 54 53 53 52 53 55 59 61 60 59 58 58 58 57 55 54
66 67 63 64 60 59 63 62 61 61 60 59 59 59 59 58 60 57 55 52 50 50 54 53 50 49 49 51 54 57 55 57 56 56 56 56 54 56
66 64 66 60 57 55 57 60 60 58 58 55 55 55 55 56 56 56 55 54 52 50 55 52 48 47 46 46 49 54 56 58 56 59 56 54 53 54
65 63 61 54 52 55 57 57 54 57 54 53 51 52 52 53 56 55 55 55 54 54 55 51 48 47 45 47 48 53 57 58 56 57 56 54 53 53
64 59 53 50 52 54 55 55 55 52 51 51 50 51 52 54 54 53 54 53 52 53 56 50 48 49 46 48 50 52 53 52 56 53 53 54 55 57
58 56 55 56 55 55 54 53 52 51 51 51 51 51 51 51 51 50 50 49 47 49 54 53 51 49 51 51 50 53 56 49 53 53 54 55 58 58
54 54 53 52 52 52 52 52 51 51 51 51 51 50 50 49 49 48 47 46 45 45 46 51 52 51 51 51 51 54 51 51 54 54 53 54 56 55
55 53 52 52 52 52 52 52 53 55 52 52 49 48 48 48 47 47 46 44 44 45 45 47 46 47 48 50 56 50 49 50 53 54 53 49 51 54
56 55 54 54 54 54 54 53 53 52 51 49 49 48 48 47 47 46 46 45 46 44 47 45 44 44 43 45 49 55 49 51 51 51 51 49 48 50
55 55 55 54 53 53 51 51 49 49 48 49 48 48 46 46 46 46 45 44 44 44 44 47 44 46 44 45 45 50 51 48 48 47 48 50 51 53
54 53 53 53 52 51 51 50 49 49 48 47 47 47 46 45 45 45 45 47 46 44 43 45 48 54 48 48 45 45 48 51 50 47 47 45 43 44
55 53 54 52 51 51 50 50 49 49 48 47 46 45 45 45 45 45 45 44 44 44 43 45 47 46 47 45 43 43 45 48 51 53 53 49 42 39
55 54 54 54 53 52 51 49 50 49 48 46 45 45 45 46 44 44 45 45 45 44 44 44 45 45 45 44 45 42 42 44 46 48 48 51 50 49

GFSNE_sfc_temp_015.txt.gz
Temp
64 64 63 63 63 63 62 62 62 56 57 61 62 65 65 65 68 67 67 69 70 69 68 67 68 69 70 71 71 71 71 72 72 71 71 72 73 74
64 63 62 62 63 63 62 62 61 61 60 63 63 63 65 68 69 68 68 71 69 68 67 67 67 68 69 69 70 70 70 70 70 70 70 70 71 71
65 64 63 63 63 63 62 61 60 61 60 65 61 63 64 65 67 66 67 66 66 67 67 67 66 67 67 68 68 68 68 68 68 69 70 70 70 70
64 64 64 67 63 63 63 63 62 60 59 59 62 64 64 67 64 64 67 70 67 70 67 66 65 64 64 64 64 64 64 64 64 65 67 68 69 69
65 64 64 64 62 62 62 62 61 62 60 60 63 61 62 62 65 62 62 63 66 70 68 68 67 65 64 63 62 60 58 58 59 60 62 63 65 66
67 67 65 65 63 63 63 62 62 61 61 60 61 60 60 63 60 59 59 59 61 67 68 66 65 66 65 64 64 64 61 57 56 57 58 59 60 62
66 66 65 67 68 67 64 63 62 61 60 60 61 60 60 59 57 58 57 57 58 59 59 59 59 59 60 62 64 66 63 61 59 58 57 57 57 59
65 65 66 69 68 67 67 66 65 62 61 59 59 59 58 57 56 57 56 55 54 58 57 58 57 58 58 58 63 63 62 61 60 59 58 58 57 58
68 66 66 68 67 67 65 64 64 63 64 61 60 60 59 60 58 56 55 55 54 57 56 53 54 56 58 60 62 62 61 61 60 59 58 57 56 56
68 67 65 65 65 67 65 64 63 63 63 62 61 64 62 60 59 58 57 56 54 55 55 51 53 53 56 57 60 61 61 60 59 59 58 57 55 54
68 65 65 65 63 61 64 62 62 63 62 60 60 59 58 58 59 59 57 54 51 52 52 52 52 51 51 54 57 60 59 58 57 58 58 56 54 53
63 64 63 66 59 58 64 62 60 62 61 60 60 58 57 57 59 57 55 53 49 49 53 51 49 48 48 49 50 54 53 56 55 55 56 55 54 52
63 63 65 58 55 54 57 62 61 59 59 56 54 53 54 54 54 54 54 53 51 50 54 52 47 46 44 45 46 51 52 55 53 54 54 53 52 53
63 64 64 56 52 51 54 55 54 56 54 52 51 51 51 52 54 53 53 53 53 53 53 50 48 45 43 42 44 49 52 53 52 54 53 53 52 52
65 61 53 50 50 53 55 54 54 53 51 51 50 50 51 51 51 52 52 51 50 51 54 49 47 46 44 43 45 49 48 51 55 51 51 52 53 54
57 55 55 54 54 55 53 53 52 51 51 50 50 50 50 49 49 48 48 47 45 48 51 50 47 45 46 47 47 48 52 47 51 53 53 53 57 56
56 54 54 53 52 52 51 51 51 50 50 50 50 50 48 48 48 46 45 44 43 43 45 48 49 47 46 47 46 48 48 48 50 51 51 52 55 55
55 54 53 53 53 51 51 51 51 53 50 50 50 48 47 47 46 45 44 42 42 42 42 43 44 44 47 49 53 48 46 46 50 50 50 47 49 53
56 54 53 52 52 52 52 52 52 52 52 50 48 47 47 46 45 45 43 43 43 42 43 42 41 41 41 43 48 54 47 46 46 47 48 47 48 50
54 54 54 53 53 53 52 51 49 47 47 47 47 46 45 45 45 44 43 41 42 42 42 43 41 41 41 42 43 47 50 45 44 45 45 49 50 53
54 54 54 53 52 51 49 48 48 48 48 47 46 45 44 44 43 43 43 45 44 41 41 42 45 52 44 45 43 43 45 49 48 45 46 45 44 44
54 54 53 52 50 50 49 48 48 48 47 46 45 44 44 43 44 44 43 42 42 42 41 42 44 44 44 43 42 42 43 44 50 51 53 52 44 39
54 53 52 51 50 50 49 49 53 48 46 46 44 44 43 43 43 42 43 43 42 42 41 42 42 42 43 42 43 41 41 43 45 44 47 53 52 51

GFSNE_sfc_temp_018.txt.gz
Temp
68 68 69 69 69 68 68 68 67 64 65 70 70 71 72 72 73 74 74 71 69 69 68 67 68 69 70 71 71 71 72 72 72 72 72 72 73 74
69 67 67 68 68 68 69 68 67 68 67 69 70 71 72 74 73 74 74 71 70 68 67 67 67 68 69 69 69 70 70 70 70 70 70 71 71 72
68 67 67 67 68 68 68 68 67 67 67 69 69 70 71 72 73 73 74 73 74 67 67 66 66 66 67 67 67 67 67 68 68 68 69 69 70 70
68 67 68 69 67 67 68 67 67 66 66 66 68 69 69 71 72 71 73 75 74 72 67 65 65 65 64 64 63 63 63 63 63 64 66 67 68 69
69 68 68 68 67 68 66 66 67 67 65 65 69 67 69 68 70 70 69 70 72 70 68 67 66 65 64 63 63 62 59 59 59 60 61 62 64 66
69 69 68 68 67 67 67 66 66 65 65 65 65 66 65 67 68 68 68 69 70 73 71 68 67 67 65 63 63 63 61 59 57 58 58 59 60 62
68 69 68 69 68 68 67 66 66 65 65 64 64 66 66 66 66 68 66 67 67 68 70 71 71 71 71 66 67 65 62 61 59 58 58 58 58 59
68 67 69 68 68 66 66 67 67 66 65 64 64 65 65 64 65 64 63 61 64 68 67 69 68 69 70 70 65 63 62 61 60 59 58 57 57 57
69 68 67 69 67 69 65 65 65 65 66 67 65 65 64 63 63 62 60 63 63 67 65 64 67 66 70 71 62 62 61 60 59 59 58 57 56 56
69 69 69 69 68 69 69 68 67 67 66 67 67 69 68 67 66 66 64 62 62 64 63 60 66 65 67 68 61 61 60 59 58 58 57 56 55 53
69 69 69 69 63 62 68 67 67 66 62 61 61 60 59 59 62 62 60 59 60 63 62 63 64 63 64 65 67 60 58 57 56 57 57 57 54 53
68 68 63 67 59 59 68 67 64 64 66 64 64 62 62 61 59 64 64 62 60 60 63 61 62 61 61 62 63 66 66 59 55 55 55 55 53 63
66 65 67 59 56 55 59 66 65 65 63 65 64 64 63 64 64 63 62 64 61 61 64 63 61 60 58 58 61 63 65 65 65 64 56 53 51 54
66 66 65 55 53 53 56 57 54 60 64 62 63 63 63 64 64 63 61 62 63 62 63 61 60 58 54 57 57 62 64 65 65 64 64 58 54 52
67 64 55 50 50 53 54 54 55 63 62 62 62 62 62 63 61 60 60 59 59 60 61 57 58 58 55 53 55 58 59 64 65 61 63 62 62 62
58 58 56 56 56 58 57 57 61 62 62 62 61 61 60 61 60 60 60 59 59 60 61 58 57 55 57 54 54 57 61 56 63 62 61 61 62 62
58 59 59 59 59 59 59 58 59 59 59 59 60 60 60 59 59 58 58 57 57 57 58 60 58 56 56 54 57 62 60 60 63 61 58 58 59 60
61 61 60 60 60 59 58 58 58 58 59 60 60 60 60 58 58 56 56 56 56 56 56 57 57 58 60 60 58 60 60 58 61 59 57 55 55 59
61 61 61 60 59 59 59 59 59 59 59 59 60 59 58 57 56 57 56 55 56 55 56 56 55 53 52 54 61 56 55 59 57 56 57 56 54 56
63 61 60 60 60 60 60 60 60 59 60 59 58 58 57 57 56 56 55 55 55 55 56 57 55 55 51 53 51 58 50 56 56 54 54 56 56 55
62 61 62 61 62 62 61 60 59 59 59 58 57 57 57 56 56 56 56 49 51 55 55 56 58 53 54 54 53 57 60 50 52 53 53 52 51 50
62 62 62 62 62 60 58 58 58 57 58 58 58 57 56 57 57 57 57 56 56 56 55 56 56 56 57 55 54 53 56 58 56 53 53 51 50 42
62 62 61 61 60 59 59 59 60 60 59 59 58 57 56 56 56 57 57 56 56 56 55 56 57 57 56 53 51 54 53 54 54 53 55 54 53 53

GFSNE_sfc_temp_021.txt.gz
Temp
79 78 80 82 81 82 81 82 79 76 77 81 82 83 86 86 83 84 84 75 70 69 68 68 69 70 70 71 72 72 72 72 72 72 72 73 74 75
81 77 77 81 81 81 81 81 80 80 76 82 83 84 84 85 82 83 83 74 72 69 68 67 67 68 69 69 70 70 70 70 70 70 70 71 71 72
78 77 77 78 81 81 81 81 80 79 77 81 82 82 79 80 83 83 83 83 84 68 67 67 66 66 67 68 68 68 68 68 68 68 69 69 70 70
78 77 77 79 76 77 80 77 79 78 79 74 80 80 77 79 80 79 82 86 84 76 68 66 66 66 66 65 65 64 64 64 64 65 66 67 68 68
79 77 76 75 74 79 78 78 79 77 77 77 79 81 81 81 79 78 78 80 81 74 68 68 67 66 66 65 64 63 61 60 61 61 62 63 65 66
80 79 78 76 76 74 76 75 76 76 76 76 78 79 79 80 78 78 79 80 80 84 77 71 68 68 67 64 64 64 61 60 59 59 59 60 61 63
79 79 78 77 72 74 78 75 75 75 77 77 77 77 78 78 76 81 78 79 78 79 77 78 80 80 79 68 70 68 64 61 60 59 58 58 58 59
78 77 78 71 71 67 68 70 75 74 74 77 77 76 75 75 78 77 77 75 74 77 76 78 80 79 80 81 69 65 62 61 60 59 59 58 57 58
79 78 77 79 73 76 66 66 67 67 71 76 74 75 75 76 75 71 72 73 74 79 73 74 79 76 79 81 65 63 61 60 59 59 59 58 57 56
79 79 77 77 76 75 76 75 75 75 74 78 77 78 77 77 72 75 72 72 73 74 73 69 77 74 77 78 66 63 60 59 58 58 57 56 55 54
79 79 78 77 69 64 71 75 75 76 67 63 64 63 61 62 68 74 72 69 72 74 74 71 74 72 74 74 76 64 60 59 57 57 57 56 53 52
76 77 65 73 59 60 71 75 74 76 75 71 70 61 64 64 60 72 75 72 73 71 73 70 72 71 68 75 74 75 75 64 58 56 56 55 53 70
75 73 74 59 56 56 61 77 75 76 68 73 70 71 73 73 74 72 72 74 72 71 72 71 70 70 68 68 71 73 74 74 75 72 57 55 53 56
75 71 71 56 54 55 60 61 57 66 76 75 74 74 74 74 74 73 71 72 75 70 71 68 68 68 67 66 67 72 73 74 74 73 74 64 57 54
70 66 59 54 54 55 56 55 58 76 75 74 73 73 75 76 71 69 69 68 68 69 70 67 68 68 67 66 66 68 68 72 74 72 72 72 70 70
62 61 59 59 61 66 60 61 75 76 74 74 74 74 73 71 71 72 71 71 70 71 70 68 66 65 66 69 68 67 70 67 72 71 71 70 71 71
60 61 61 63 66 69 69 71 71 71 71 72 72 71 71 71 71 71 71 70 67 68 68 71 69 65 67 64 65 69 69 70 71 70 67 66 68 69
62 61 61 63 66 68 68 69 69 67 72 71 71 72 71 70 70 69 69 68 67 67 66 68 68 67 69 69 65 68 69 68 69 68 66 64 64 68
64 63 65 66 69 70 71 68 70 71 70 71 71 71 71 71 65 68 68 67 66 66 66 68 66 65 62 62 70 59 65 67 66 66 66 65 63 65
64 64 69 68 69 69 71 71 72 70 70 70 70 71 70 69 68 68 67 66 66 65 65 67 67 66 63 62 62 66 52 64 65 63 62 64 65 59
66 68 72 70 70 72 71 71 72 71 71 70 71 71 70 69 68 68 68 56 58 65 63 65 68 54 65 66 63 66 68 51 57 61 60 59 58 59
67 70 71 70 72 73 71 71 70 68 68 70 71 71 70 70 69 68 68 66 65 66 66 68 68 67 66 65 63 63 65 66 62 55 54 54 57 52
69 71 71 73 73 71 70 69 70 71 71 72 72 70 69 68 68 69 69 68 68 66 66 66 67 68 66 66 60 64 62 63 64 63 64 56 54 54

GFSNE_sfc_temp_024.txt.gz
Temp
85 83 86 91 90 91 90 89 85 81 82 85 86 89 91 91 88 88 88 75 72 71 69 69 69 70 71 71 72 72 72 72 72 73 73 73 74 75
88 84 83 90 89 90 89 89 88 85 82 89 88 89 90 91 84 87 89 78 72 70 69 68 68 69 69 70 70 70 70 70 70 70 71 71 71 72
85 85 82 85 89 89 89 89 87 87 82 87 89 88 84 84 87 87 88 87 88 71 69 68 67 67 68 69 69 69 68 68 68 69 69 70 70 70
84 83 83 85 81 84 87 84 85 85 84 78 85 86 82 85 84 83 86 91 90 74 71 69 67 67 67 67 67 66 65 65 66 66 67 68 68 69
85 84 83 83 80 85 83 86 86 84 83 83 83 86 87 87 83 82 83 84 87 76 71 68 67 67 66 65 65 64 62 61 62 63 64 65 66 67
86 86 85 83 81 80 82 81 83 83 83 82 84 85 85 85 84 84 83 85 84 89 81 75 74 70 67 65 65 64 62 60 60 60 61 61 62 64
87 87 86 82 76 78 84 81 81 80 84 83 83 84 84 84 81 85 84 85 84 85 84 85 85 85 81 67 74 67 65 63 61 60 59 59 59 60
85 86 86 76 75 70 71 72 79 79 79 83 84 82 80 82 83 83 83 81 78 83 80 82 86 84 86 87 68 66 64 62 61 60 59 58 58 59
86 86 86 88 77 81 69 68 69 69 71 80 78 80 80 80 80 77 77 78 78 82 78 78 84 83 85 87 67 66 63 61 60 59 59 58 57 57
87 86 85 85 82 80 80 77 77 79 77 82 81 82 80 82 79 78 76 76 79 81 79 73 82 80 83 83 68 65 63 60 59 59 58 57 55 54
87 87 86 84 74 67 80 78 77 76 70 67 66 65 66 67 70 81 78 77 77 78 79 78 78 78 79 80 81 67 64 61 60 59 58 56 54 53
86 85 69 81 65 62 77 80 76 77 77 79 76 69 66 69 62 75 81 77 78 77 78 76 77 77 73 80 80 80 79 65 59 58 58 57 54 72
90 87 86 64 56 58 64 76 75 79 74 81 79 79 78 78 78 77 78 79 78 77 74 77 75 76 75 74 78 79 79 78 79 76 58 56 54 59
89 91 83 58 55 55 60 62 59 64 82 80 79 78 78 79 80 79 76 77 80 74 75 73 73 73 72 71 72 77 78 79 78 77 78 69 56 55
93 81 63 55 53 56 58 58 59 73 78 76 76 76 80 82 79 75 74 73 73 74 75 72 73 72 73 71 71 72 72 76 78 77 77 76 76 76
62 64 61 59 60 62 59 61 71 74 73 73 77 79 81 77 76 77 76 75 75 76 73 72 70 69 70 72 72 71 74 71 76 76 76 75 76 76
61 62 62 64 63 64 65 65 68 68 70 73 77 79 76 75 76 78 77 76 73 74 75 75 71 70 72 68 68 71 72 73 75 74 71 71 73 74
63 64 64 65 65 65 65 65 67 69 74 74 76 76 75 76 76 76 76 74 73 74 73 74 74 72 73 73 69 72 73 72 73 72 71 69 70 73
66 65 65 65 65 64 65 68 70 75 76 78 77 77 77 76 74 75 74 73 73 73 73 73 72 70 66 66 74 62 70 71 70 70 71 69 67 69
67 65 65 66 68 69 72 74 77 78 78 78 77 78 77 76 74 74 74 73 72 72 71 72 71 70 68 67 67 71 55 68 69 67 67 69 69 61
67 67 68 70 73 73 75 76 78 78 78 77 77 78 77 76 75 75 75 61 63 71 69 70 73 60 72 71 67 70 74 54 60 66 66 65 64 65
66 68 73 75 77 73 73 74 75 75 76 77 78 78 77 77 76 75 75 73 70 71 71 74 73 72 70 69 68 68 70 73 64 56 55 57 63 57
68 73 75 75 73 73 74 76 76 77 77 78 78 77 76 76 76 76 76 75 74 73 72 71 72 73 70 70 66 69 68 69 70 69 70 57 56 55

GFSNE_sfc_temp_030.txt.gz
Temp
80 80 79 79 81 81 80 78 75 70 71 76 76 80 79 77 78 78 76 73 72 72 71 70 71 71 72 72 72 72 72 72 72 72 72 72 73 74
82 79 78 78 79 81 80 79 78 75 71 75 76 78 80 83 78 79 80 74 72 72 70 70 69 70 70 70 71 71 71 71 71 70 70 70 71 71
82 80 78 78 79 79 80 79 77 77 72 75 78 78 77 76 77 79 76 75 74 71 70 70 69 69 69 70 70 70 70 69 69 69 70 70 70 70
81 81 79 81 77 78 79 77 77 78 75 73 76 75 75 77 77 76 79 85 79 74 70 70 69 68 68 68 68 68 67 67 67 68 68 68 68 68
82 80 80 79 77 78 77 78 77 78 77 74 73 76 76 77 75 76 76 76 80 73 69 69 68 68 67 66 66 65 63 63 63 64 64 65 66 67
83 82 81 80 78 77 77 75 77 76 75 74 73 73 75 75 76 74 72 74 74 81 77 75 70 69 68 66 66 65 62 61 62 62 62 62 63 64
83 84 83 81 77 77 79 77 75 75 75 74 72 73 73 73 74 74 72 72 72 74 74 74 73 70 72 68 70 68 65 65 63 62 61 60 59 60
81 83 83 78 76 73 72 74 76 74 73 75 75 74 72 74 74 73 72 69 67 74 72 72 74 70 74 72 70 70 66 64 62 61 60 58 58 58
82 82 84 87 78 79 71 72 70 71 74 75 73 73 73 75 75 73 73 72 70 72 71 69 72 71 72 70 66 65 66 64 62 61 61 60 59 58
83 83 82 83 82 80 78 76 76 75 73 78 77 76 76 78 77 75 73 73 72 73 72 66 70 69 71 67 64 65 64 65 63 61 60 59 57 56
84 84 83 82 77 69 78 75 75 76 71 68 70 70 68 68 74 74 71 70 68 69 71 70 70 68 69 67 64 63 62 63 62 62 61 59 56 54
83 83 72 81 70 64 78 77 74 75 76 75 72 67 67 69 67 74 74 70 69 67 71 70 68 67 63 68 66 63 62 59 58 59 59 58 57 55
84 84 85 66 64 60 68 79 77 77 73 76 73 72 72 71 68 71 74 72 70 68 69 70 67 66 64 62 65 66 65 63 61 61 57 56 55 57
83 86 85 65 60 58 63 71 62 68 77 75 71 70 69 69 72 70 71 72 72 70 68 68 66 65 62 60 60 64 64 65 65 63 64 63 55 54
85 80 61 58 58 59 60 64 61 74 74 73 72 69 70 71 71 70 71 71 69 69 70 68 65 65 63 60 59 60 60 62 63 62 63 62 61 61
72 77 75 72 64 68 66 64 73 74 74 70 70 70 71 70 69 71 69 68 65 66 68 67 65 63 60 60 59 58 61 59 61 62 61 61 62 62
75 80 78 76 77 70 72 70 72 74 72 72 70 69 68 67 66 68 69 67 65 64 64 65 65 64 62 60 58 59 59 60 62 61 60 58 59 61
70 76 74 74 71 72 71 69 70 71 72 70 69 68 66 64 62 62 65 68 65 65 65 65 63 60 59 61 64 59 59 60 61 61 60 57 57 59
76 73 73 74 72 71 71 70 69 70 71 69 67 67 65 64 62 62 67 68 67 66 64 66 63 60 57 57 61 63 60 60 59 58 59 58 56 56
70 72 72 72 71 70 70 69 70 69 68 67 66 65 65 63 63 66 68 68 66 64 64 64 63 62 58 57 58 60 54 59 58 57 58 58 59 61
63 64 65 66 68 70 70 69 69 68 68 67 66 65 65 64 63 66 69 63 64 65 63 61 62 64 63 62 58 57 60 54 60 59 58 56 54 54
65 65 66 66 66 66 68 68 68 68 67 66 65 65 65 66 69 70 70 67 67 67 64 63 60 61 60 59 58 58 59 61 56 58 59 59 55 50
67 67 65 64 64 65 65 65 65 65 65 65 65 65 66 70 72 70 70 69 67 65 63 61 60 61 60 60 59 59 60 61 60 58 58 59 57 57

GFSNE_sfc_temp_033.txt.gz
Temp
73 73 71 72 72 73 74 72 69 63 65 70 71 73 72 73 74 74 71 72 71 70 70 70 70 71 72 72 72 72 72 72 72 72 71 72 72 73
75 73 72 71 72 72 73 73 71 68 65 69 71 72 74 77 76 74 74 73 71 70 70 69 69 70 70 71 71 70 70 70 70 70 70 70 70 71
75 74 73 72 71 71 72 72 71 70 67 69 71 72 71 71 72 71 73 72 71 69 70 69 68 68 69 69 69 69 69 69 69 70 70 70 70 70
75 74 74 76 71 70 71 71 72 70 69 67 68 70 70 70 72 71 74 78 72 72 69 68 68 67 67 67 67 67 68 67 67 68 68 69 69 68
77 76 76 74 73 75 70 70 70 72 70 68 67 68 70 70 69 70 71 71 75 74 69 68 68 67 66 65 64 63 63 63 63 63 64 65 66 67
76 78 78 75 76 76 74 72 70 70 69 68 67 67 68 69 71 71 66 69 71 77 74 71 69 68 67 66 64 64 61 60 60 61 61 61 63 64
79 78 79 79 75 76 77 75 72 69 71 70 65 66 66 66 70 68 71 71 69 69 68 69 68 67 69 67 68 67 63 62 62 61 60 59 59 59
78 79 80 75 75 71 71 73 76 76 72 75 73 71 73 68 69 73 73 65 63 68 68 67 70 66 69 68 68 67 63 65 62 61 60 58 58 58
80 80 80 83 75 78 70 70 71 71 75 76 74 74 74 75 74 70 72 70 64 67 66 66 68 66 69 71 66 64 63 63 62 61 60 59 58 57
81 81 81 80 81 78 77 74 75 75 74 77 77 76 75 74 76 74 71 69 67 68 67 64 68 68 66 66 63 64 62 61 62 61 60 58 57 55
82 82 81 81 75 67 77 75 74 76 71 67 70 70 68 68 71 72 68 65 62 64 66 66 67 68 66 63 63 62 61 60 60 60 59 58 56 54
82 83 71 77 69 64 76 77 74 75 75 75 70 66 67 69 67 76 70 66 63 63 69 66 66 66 64 64 62 60 61 58 57 57 58 57 55 53
81 82 83 66 62 60 63 80 77 78 74 75 75 75 73 71 69 70 70 70 65 65 70 73 66 64 64 62 59 58 58 57 56 56 55 54 54 55
81 84 83 65 60 60 60 67 64 66 78 75 74 73 73 70 72 70 70 70 74 74 69 71 66 65 62 56 58 57 56 58 57 57 57 57 54 52
82 78 68 61 57 60 60 62 61 72 76 75 73 75 74 75 73 68 69 69 67 68 68 67 67 64 62 58 57 56 56 57 57 57 56 56 57 55
68 73 71 67 67 70 66 63 69 76 76 76 76 77 74 68 66 68 66 66 64 61 64 66 66 66 58 58 57 54 54 56 54 56 55 55 56 56
67 73 74 75 74 76 71 72 67 70 73 75 74 72 69 67 66 67 66 65 64 61 60 61 61 62 59 58 54 53 52 52 55 55 54 52 54 55
63 69 71 74 75 75 75 74 72 68 70 72 72 71 68 67 66 66 66 64 63 61 60 60 58 56 55 57 60 53 51 53 54 54 53 52 51 54
64 68 68 69 72 73 73 73 73 72 71 70 72 72 69 68 66 65 63 62 61 60 60 63 61 59 51 51 54 60 56 53 53 52 53 52 51 52
61 61 62 63 64 65 66 66 68 70 71 71 71 72 70 68 65 63 62 62 62 61 62 63 61 60 57 55 53 56 56 54 53 51 52 51 53 57
60 59 60 61 62 62 63 64 65 65 66 68 69 70 70 67 64 64 63 59 59 61 60 60 63 63 59 56 54 52 53 54 56 54 52 50 49 48
61 62 62 62 63 63 62 62 64 64 64 65 66 66 64 63 62 61 61 59 59 60 61 61 61 60 55 54 51 52 53 54 54 55 57 58 51 46
61 61 62 62 62 61 61 61 63 62 62 62 62 63 63 62 62 61 60 60 60 61 60 55 55 54 54 54 53 51 52 53 52 52 53 56 56 57

GFSNE_sfc_temp_036.txt.gz
Temp
71 72 70 70 70 70 69 69 68 62 63 68 68 70 72 70 73 73 70 72 71 70 69 69 70 71 72 72 72 72 72 72 72 72 71 72 72 73
72 71 70 70 70 69 69 68 68 67 64 67 69 69 71 74 73 73 73 72 71 70 69 68 68 69 70 70 70 70 70 71 70 70 70 70 71 71
73 72 71 70 70 69 68 68 67 66 66 68 67 69 68 68 71 71 71 70 70 69 69 68 67 68 68 69 68 68 69 69 69 69 70 70 70 70
74 73 73 75 69 68 68 68 68 67 67 66 66 66 68 68 70 69 72 76 72 72 68 68 67 66 66 66 66 65 65 65 66 67 68 69 69 69
75 74 75 73 73 71 67 70 67 68 66 66 67 65 66 66 66 67 67 70 72 73 68 66 66 66 65 65 64 62 61 61 62 63 64 65 66 68
76 76 76 75 75 73 70 68 68 66 65 64 64 64 65 66 67 70 67 66 71 75 74 71 69 67 66 65 64 63 60 59 59 59 60 61 62 64
76 76 77 77 75 75 76 74 69 69 65 66 63 63 63 64 68 68 69 72 70 68 68 68 67 66 67 66 69 67 62 61 59 59 58 58 58 59
76 76 77 74 73 70 70 73 75 73 71 72 72 69 74 67 66 74 71 63 65 67 68 71 68 66 71 70 69 66 63 62 61 59 58 58 58 58
78 78 78 80 74 76 69 69 70 69 74 76 75 75 75 75 74 67 71 70 73 69 69 72 66 71 73 73 66 64 63 61 61 60 59 58 58 57
79 79 79 78 79 76 76 72 73 76 73 76 79 79 79 79 76 76 75 73 68 67 68 70 66 69 68 70 64 64 62 60 60 60 59 58 56 55
81 80 80 79 73 66 75 74 73 73 73 67 70 70 68 67 72 74 70 67 65 68 67 73 64 66 64 67 68 62 61 59 59 60 60 58 55 53
80 81 70 76 67 64 74 76 74 75 75 76 72 69 66 69 65 78 78 71 71 63 65 71 62 63 61 65 65 64 61 58 57 58 58 57 54 52
79 80 82 65 62 60 62 78 78 80 76 75 76 75 74 74 74 74 79 77 72 71 67 74 66 60 61 61 61 63 62 58 57 56 54 53 52 53
79 82 82 64 59 59 60 65 63 64 76 75 73 73 72 70 70 73 72 71 77 77 68 73 65 62 63 59 59 56 58 57 57 56 56 55 53 52
78 75 66 60 57 59 59 61 60 70 73 73 73 75 75 73 72 72 71 70 70 70 68 70 65 66 69 57 54 55 57 57 56 55 54 55 55 54
64 69 68 64 61 65 65 64 66 70 71 72 73 75 75 73 71 71 68 68 66 66 66 68 66 61 56 57 58 57 57 57 53 53 54 53 53 53
64 70 69 70 72 73 74 74 72 69 67 69 71 72 73 73 70 70 68 67 66 65 63 62 62 62 60 55 53 56 55 54 55 52 52 52 52 53
61 65 66 68 69 70 72 73 73 71 70 70 70 71 71 72 72 69 68 66 65 66 64 61 59 56 55 54 58 57 52 53 52 52 51 51 50 52
62 61 61 63 63 63 64 64 63 64 66 66 67 69 70 71 69 70 67 66 66 66 65 61 59 60 55 52 54 58 55 53 52 50 51 52 52 52
58 58 58 58 59 59 59 60 61 63 63 64 64 65 66 66 66 66 67 67 66 66 64 61 61 59 56 56 54 56 55 54 52 51 50 49 51 55
58 59 59 61 61 61 60 61 61 60 60 62 63 65 64 62 61 61 64 59 62 65 61 59 59 57 54 55 55 53 53 53 57 55 50 50 48 48
59 59 60 61 60 60 60 59 60 59 59 59 59 59 61 59 60 61 61 59 59 58 57 57 56 55 52 52 51 52 53 52 53 55 56 56 50 46
61 63 62 60 61 61 60 61 60 60 59 59 58 58 60 61 61 60 60 59 57 56 56 55 55 53 52 55 53 52 52 52 52 53 53 55 56 57

GFSNE_sfc_temp_039.txt.gz
Temp
70 70 68 68 68 68 67 67 66 62 62 66 67 67 70 68 70 71 70 72 71 70 69 68 69 70 72 72 73 72 72 72 72 72 72 72 72 73
71 70 69 68 68 67 67 66 65 66 63 66 68 68 68 72 71 71 71 72 71 69 69 68 68 69 70 70 70 70 70 71 71 70 70 70 71 71
72 71 70 69 68 67 66 65 65 64 64 66 65 66 66 66 69 71 70 68 70 69 68 68 67 67 68 68 68 68 69 69 69 69 70 70 70 70
72 72 72 72 69 67 66 66 65 64 65 64 65 66 66 66 68 67 70 73 71 71 68 67 67 66 66 66 66 66 65 65 66 67 68 69 69 69
74 73 74 71 70 69 67 65 65 67 64 63 66 64 65 64 64 65 66 68 70 73 68 67 66 66 65 64 64 63 61 61 62 62 64 66 67 68
75 75 75 74 73 72 71 69 67 65 63 62 62 67 65 65 64 64 63 63 70 74 73 72 69 68 66 64 64 63 60 59 59 59 60 61 62 64
74 75 76 76 74 74 75 73 68 68 66 69 68 60 62 63 63 65 70 73 69 71 71 73 70 70 69 65 68 67 63 61 59 59 59 58 58 59
75 74 75 73 73 70 69 71 75 72 71 69 72 71 71 69 74 72 68 61 66 69 69 74 74 72 72 68 68 66 64 62 60 60 58 57 57 58
76 77 76 78 73 75 69 68 68 68 73 77 71 74 73 75 74 69 71 71 72 69 72 73 70 71 74 72 66 65 64 61 60 60 59 58 57 57
78 78 78 78 77 75 75 73 71 74 73 73 77 79 78 79 76 75 74 75 75 77 69 70 68 70 73 71 65 65 63 61 59 59 58 57 56 55
79 78 78 78 72 66 75 74 74 74 70 66 67 68 68 66 73 76 72 68 70 72 71 71 72 69 66 69 69 64 62 59 58 58 59 58 55 54
78 79 68 74 66 63 73 75 73 76 77 76 72 68 66 71 64 75 74 68 70 71 74 67 71 66 64 63 68 64 63 58 57 57 58 57 54 55
77 77 79 65 61 60 61 77 76 78 75 75 77 77 74 72 73 72 69 68 67 69 72 67 66 65 65 60 60 64 63 58 59 57 54 55 53 56
77 80 80 63 58 58 59 63 62 63 74 74 74 74 75 74 73 75 73 69 71 70 72 68 67 66 64 58 57 57 60 60 63 60 61 55 51 52
77 73 64 59 55 57 57 59 58 66 69 71 72 73 75 77 76 75 73 73 71 71 71 70 68 68 66 63 60 57 58 58 57 60 59 59 57 52
64 68 66 63 61 65 65 63 65 67 69 70 71 73 74 74 74 74 71 71 68 69 71 72 69 68 64 65 63 58 59 54 57 56 56 56 54 55
65 69 69 69 69 69 70 72 71 69 67 68 68 69 69 70 71 72 72 72 69 69 68 69 69 69 67 66 60 60 54 52 55 55 53 53 52 55
64 66 66 67 66 66 67 64 65 64 64 64 64 64 65 65 65 67 68 69 68 68 68 69 68 64 63 60 65 56 55 53 52 53 57 56 51 51
64 62 60 59 59 58 59 59 59 60 60 60 60 62 62 63 63 65 64 64 64 65 66 68 68 62 58 56 54 59 54 51 51 51 58 54 56 54
59 58 59 61 62 59 58 58 59 60 59 59 59 61 63 62 61 60 61 59 59 60 62 65 66 63 61 58 51 51 53 51 52 56 51 49 50 54
57 58 58 58 59 59 59 59 59 59 58 58 58 57 57 60 60 60 60 54 55 57 54 53 54 56 56 55 51 50 50 50 54 57 51 50 49 47
60 61 61 61 59 59 59 59 60 59 58 58 57 57 58 58 59 59 59 57 57 56 54 55 56 55 54 52 50 50 49 50 52 55 57 56 51 47
54 55 57 55 55 57 61 62 62 62 58 59 60 60 58 60 61 59 59 57 56 56 55 55 54 54 52 51 50 48 51 51 51 52 53 54 56 56

GFSNE_sfc_temp_042.txt.gz
Temp
74 74 73 74 73 73 72 73 72 70 70 74 73 74 74 75 76 77 76 72 71 70 69 69 69 71 71 72 72 72 73 73 72 72 72 72 73 73
75 73 73 74 74 73 73 72 71 72 70 73 75 75 75 76 75 76 76 72 70 70 69 68 68 69 70 70 70 70 71 71 71 71 71 71 71 72
75 74 74 74 75 74 72 72 71 70 70 73 72 74 73 73 75 75 75 75 76 69 69 68 67 68 68 69 69 69 69 69 69 70 70 70 70 71
75 74 75 76 73 73 73 71 71 70 71 69 71 73 71 73 73 72 74 77 76 73 68 67 66 66 66 66 66 66 65 66 66 67 68 69 70 70
76 75 76 75 74 75 73 73 72 72 70 69 72 72 73 73 71 70 71 73 76 73 68 67 66 66 65 64 64 63 61 61 62 63 64 66 67 69
77 77 77 76 75 76 74 73 73 72 70 70 71 71 73 73 71 72 72 71 74 78 76 73 71 69 67 64 64 64 61 59 59 60 61 62 63 65
76 77 78 77 74 74 78 75 74 73 74 71 71 71 71 71 71 76 71 75 74 75 76 76 76 75 75 67 71 67 63 61 59 59 59 59 59 61
75 76 77 74 73 69 69 71 76 74 73 74 74 74 73 73 74 74 73 72 72 76 73 75 78 77 77 78 72 67 63 62 61 59 59 58 58 59
77 77 77 79 74 77 70 67 68 67 71 77 74 74 74 76 75 72 71 73 74 79 73 74 77 75 77 79 67 65 64 63 61 60 59 58 57 57
78 78 77 78 77 76 77 77 77 76 73 74 75 77 79 79 77 76 74 73 74 76 72 71 78 75 77 77 67 65 64 63 60 59 58 57 55 55
79 79 78 78 71 66 76 76 76 77 71 66 67 68 66 65 69 76 72 69 69 72 75 73 73 75 75 73 76 65 64 62 59 59 58 57 54 54
77 78 68 74 66 63 74 76 75 77 77 77 75 68 65 70 64 68 71 68 68 68 76 67 70 67 67 70 70 70 68 60 58 57 58 57 54 61
77 78 80 63 61 60 61 76 75 75 74 75 76 77 76 75 74 73 71 68 68 69 77 70 70 68 66 67 66 67 66 65 63 58 56 55 53 61
77 79 78 62 58 57 59 62 61 63 73 73 73 74 75 77 78 76 76 73 72 73 77 71 68 67 66 65 64 62 65 66 63 62 62 57 53 55
78 74 65 61 55 57 57 58 58 65 68 69 70 72 75 77 76 75 76 76 74 73 72 72 71 70 67 66 66 65 61 63 63 63 61 59 56 54
65 69 65 64 61 65 65 64 65 67 69 70 70 72 73 72 71 74 72 73 71 73 77 74 71 70 68 68 67 65 62 61 62 62 61 59 57 55
67 70 70 70 71 71 71 71 71 70 69 70 69 69 70 70 70 71 69 68 65 66 69 72 73 73 70 69 67 66 65 62 62 61 59 56 55 55
68 69 68 68 68 67 66 68 68 66 67 66 66 66 65 65 64 66 66 64 63 64 64 67 65 64 65 68 68 66 67 62 60 59 59 55 52 52
66 63 62 62 63 64 65 65 66 66 65 65 65 65 65 66 64 62 64 64 61 61 61 59 57 59 60 60 56 54 60 58 57 56 56 56 53 51
62 62 62 65 65 64 64 65 65 65 65 65 65 65 65 64 64 64 64 62 60 59 57 57 55 54 54 54 49 50 52 54 52 50 48 49 50 54
62 62 63 63 63 63 64 64 63 63 62 62 64 64 64 64 63 62 61 55 55 58 55 55 56 56 58 57 50 49 51 51 53 52 50 49 49 52
56 58 57 57 56 57 59 61 62 62 62 63 64 63 63 63 63 61 61 59 58 57 58 60 60 59 58 55 50 50 50 51 52 53 54 53 56 53
52 52 53 52 52 52 53 54 56 61 63 62 63 63 63 62 65 65 64 60 59 57 58 60 60 60 59 58 53 53 54 50 50 51 52 53 55 55

GFSNE_sfc_temp_045.txt.gz
Temp
84 83 84 87 86 86 85 85 83 80 83 88 88 87 89 89 87 88 87 78 71 71 70 69 70 71 72 73 73 73 73 73 73 73 73 73 74 75
86 83 83 86 85 85 85 85 84 82 80 88 89 88 88 89 86 84 87 77 72 70 69 69 69 70 71 71 71 71 71 72 72 72 71 71 72 73
83 83 82 83 86 87 85 85 84 83 81 86 87 87 82 83 86 85 85 85 87 70 69 68 68 69 69 70 70 69 70 70 70 70 71 71 71 71
84 83 83 86 82 83 85 82 83 83 81 78 84 86 83 85 84 83 85 90 88 80 69 67 67 67 67 67 67 67 67 67 67 68 69 70 70 70
85 84 84 84 82 85 84 85 85 83 82 80 82 86 85 86 84 83 82 84 87 79 69 67 66 66 66 65 65 64 63 62 63 64 65 67 68 69
85 85 85 84 83 83 84 83 83 83 84 82 83 85 85 85 84 82 84 88 87 90 84 78 75 70 67 65 65 65 62 60 60 61 62 63 64 66
85 85 85 83 77 79 86 84 83 82 83 83 83 84 84 85 83 87 85 86 86 88 86 88 89 88 83 68 73 68 65 63 61 60 59 60 61 62
83 84 85 78 77 70 69 71 79 82 80 83 85 83 82 83 86 85 84 82 81 91 85 84 87 87 89 90 78 70 66 64 63 61 60 59 59 60
84 84 86 89 80 84 74 68 68 67 70 80 80 82 82 83 83 80 81 82 82 87 82 82 87 86 87 90 72 69 66 64 63 62 60 59 59 58
85 85 85 85 85 84 85 85 85 85 81 80 80 82 83 85 84 81 79 77 78 83 83 76 85 85 85 89 72 67 65 63 62 61 60 58 57 56
85 85 85 84 75 67 82 82 83 84 78 68 69 68 65 64 68 76 72 73 72 77 84 78 83 84 86 86 88 67 63 62 61 61 60 58 56 55
84 83 70 78 68 63 79 81 80 83 85 86 86 76 70 73 64 70 71 69 69 70 81 76 75 74 72 85 84 82 83 60 59 59 58 58 55 67
85 86 87 64 61 60 61 82 80 82 80 80 79 78 79 78 81 82 76 72 71 71 80 73 72 73 71 72 78 80 78 80 65 64 56 56 53 62
84 88 86 63 58 58 61 64 61 63 75 73 74 74 74 75 78 77 76 75 73 73 77 76 72 71 70 69 69 75 72 70 72 65 68 58 53 58
85 79 66 60 56 60 58 59 58 66 68 69 70 71 74 78 77 77 82 82 82 82 83 80 77 76 76 71 70 71 68 69 67 67 64 60 56 58
69 78 71 67 64 67 67 65 65 67 68 69 71 73 76 80 81 83 80 80 77 78 80 80 78 76 72 72 69 67 69 66 65 65 65 62 60 60
71 76 74 73 72 73 72 72 73 71 69 73 77 79 79 79 79 80 78 77 75 74 75 77 75 71 70 69 66 68 67 67 68 66 63 61 60 58
69 72 71 70 70 70 70 71 73 73 79 79 78 77 76 76 76 77 76 75 72 70 72 74 71 61 61 67 60 52 53 59 64 65 63 59 55 55
72 69 66 66 67 68 71 76 79 78 75 77 76 76 76 76 73 75 75 74 73 71 72 73 64 57 54 53 62 55 52 57 56 57 58 56 53 53
74 69 68 69 70 76 77 77 77 75 72 71 73 76 76 74 74 74 74 65 63 68 72 71 63 58 56 53 52 52 50 54 53 50 50 51 53 55
67 64 66 68 66 66 65 65 65 66 66 65 68 72 74 73 72 68 67 56 59 66 64 62 64 57 68 67 55 52 52 51 52 52 53 53 51 51
60 62 62 62 59 58 58 59 60 62 64 64 66 68 68 68 69 69 69 65 64 63 65 68 70 73 70 63 58 55 54 53 53 54 54 55 55 50
57 57 57 56 56 56 56 56 56 58 58 59 59 60 64 65 66 67 67 68 68 66 66 69 74 73 69 67 63 61 53 53 55 55 52 53 54 56

GFSNE_sfc_temp_048.txt.gz
Temp
89 88 89 94 94 94 93 92 88 84 89 91 94 95 97 98 93 94 93 79 72 71 70 70 71 72 73 73 74 74 74 74 74 74 74 74 75 76
92 89 88 93 93 93 93 93 91 88 85 95 95 96 95 96 93 92 92 80 73 71 70 69 70 71 71 72 72 72 72 72 72 72 72 72 72 73
89 88 87 88 92 94 93 93 91 91 87 92 96 97 89 88 91 93 92 91 93 71 70 69 68 69 70 71 71 70 71 71 71 71 71 71 72 72
88 88 87 91 86 87 92 88 90 91 89 83 89 91 90 91 89 87 90 96 96 84 70 68 68 67 68 68 68 68 68 68 69 69 70 71 71 71
89 88 88 88 86 90 89 91 92 90 89 88 87 93 93 94 91 90 88 89 93 82 71 69 67 66 66 65 65 65 64 64 65 66 67 68 69 70
90 90 90 89 88 87 88 87 88 88 89 89 90 92 94 94 94 91 90 94 95 98 88 81 78 73 68 65 65 65 62 62 62 62 63 64 65 67
90 91 91 88 79 81 91 89 88 88 90 91 91 92 92 93 91 94 91 93 93 96 96 97 97 95 92 68 74 68 65 63 62 61 61 61 62 63
88 89 90 82 80 72 71 71 77 85 85 88 89 88 87 89 93 91 91 89 87 96 91 91 93 91 92 95 80 72 67 64 63 61 61 59 60 61
89 89 91 96 84 91 74 69 70 69 70 81 81 84 85 87 87 85 86 86 84 90 88 86 90 89 93 97 73 69 66 65 62 62 61 60 60 59
90 90 89 89 90 89 91 90 90 90 84 83 84 85 85 87 86 85 83 83 85 84 82 78 88 86 91 92 75 70 67 64 62 61 60 59 58 57
89 89 90 89 79 68 87 86 86 88 84 70 71 70 68 66 71 83 77 78 76 83 85 78 86 87 89 90 91 74 66 64 61 61 60 59 56 54
89 88 72 80 70 64 84 85 84 86 89 89 89 74 69 78 65 77 80 72 73 73 86 77 79 78 75 87 89 91 90 66 60 58 59 58 55 60
92 93 94 67 63 62 61 84 83 83 83 86 85 89 90 87 85 81 76 73 73 74 84 77 78 82 82 84 87 89 89 88 82 74 55 55 53 59
91 96 93 64 59 58 64 66 62 65 84 85 79 76 77 78 79 79 79 79 80 79 83 82 81 82 81 81 82 86 86 86 86 77 71 67 53 54
91 82 63 60 57 62 58 59 58 78 72 69 71 72 74 74 78 84 84 84 85 86 88 83 82 80 79 78 77 79 79 79 80 74 67 68 64 58
73 83 79 69 61 67 75 72 74 71 70 71 70 72 75 81 84 88 87 87 85 86 87 84 80 77 76 76 75 75 70 66 73 73 65 66 66 61
81 86 84 83 81 79 77 76 73 71 70 70 72 77 86 87 86 88 85 84 82 82 81 84 82 79 76 71 71 67 61 64 67 61 62 62 63 59
75 78 77 76 74 74 73 72 74 73 78 79 83 85 84 84 84 84 84 81 80 81 80 81 80 75 73 71 68 64 55 56 57 57 59 56 53 55
76 74 73 72 71 71 73 74 76 79 80 83 83 83 83 83 80 82 82 82 80 78 79 81 78 70 60 64 71 54 52 56 54 53 55 53 52 52
75 72 70 71 72 73 76 78 81 80 78 77 77 82 83 82 81 80 78 75 75 75 78 79 76 71 64 62 59 58 51 56 55 53 53 53 53 55
82 79 79 77 75 70 71 71 72 72 74 73 74 77 75 74 75 73 72 59 63 74 74 75 76 60 74 76 67 59 58 53 55 59 57 53 52 52
74 73 73 69 67 70 71 71 72 71 70 68 67 70 72 73 71 71 71 69 67 70 72 77 79 77 75 74 70 63 59 59 58 55 54 55 57 51
68 71 70 70 71 70 71 70 69 71 71 71 73 74 73 72 73 71 70 70 69 66 70 75 79 78 77 76 69 73 65 66 67 68 68 53 55 58

GFSNE_sfc_temp_051.txt.gz
Temp
89 88 89 94 96 95 94 93 89 84 89 90 93 97 97 99 94 95 94 78 73 71 71 70 71 72 73 74 74 74 75 75 75 75 75 75 76 76
92 90 89 93 95 95 94 94 93 89 85 95 96 98 98 98 94 94 94 82 73 71 70 70 70 71 72 72 72 72 73 73 73 73 73 73 73 74
90 91 89 89 92 95 95 94 93 92 87 92 96 97 94 91 92 92 92 93 93 71 70 70 69 69 70 71 71 71 71 71 71 72 72 72 72 72
89 89 89 92 87 88 91 89 91 92 89 83 88 91 89 91 91 89 91 95 94 85 71 69 68 67 67 68 68 68 67 68 68 69 70 71 71 71
90 89 89 89 87 90 90 91 93 91 90 88 88 93 94 95 93 91 90 90 95 85 76 70 69 68 67 66 65 64 63 63 64 65 66 68 69 70
91 91 91 90 88 88 88 87 88 88 89 89 90 92 94 95 96 93 93 97 96 100 91 84 78 71 68 66 65 65 62 60 61 62 63 64 65 67
91 91 91 89 81 83 91 88 87 89 90 90 91 93 93 94 90 94 92 94 94 96 97 96 92 92 86 70 73 69 65 62 61 60 61 61 62 64
89 90 91 82 81 74 72 72 77 83 84 87 89 88 85 88 93 91 90 88 85 95 89 91 92 88 93 91 80 70 67 64 62 61 60 59 60 61
89 89 91 96 84 91 75 72 72 69 70 81 80 82 82 85 85 83 83 85 84 89 88 86 91 88 93 95 77 72 66 65 63 61 60 59 59 59
91 91 89 90 91 90 92 91 88 88 84 83 83 84 85 86 85 85 83 82 84 88 87 81 88 87 88 90 76 69 67 64 63 61 60 58 57 56
90 90 90 90 80 70 87 86 87 88 84 71 71 71 69 67 71 85 82 81 79 79 86 82 87 85 87 88 91 76 70 65 62 63 60 58 56 55
88 87 74 82 72 65 84 86 84 86 89 90 91 81 71 78 67 77 81 74 74 74 84 81 82 81 81 88 90 91 92 73 62 60 60 58 55 67
93 94 96 69 65 64 64 85 83 84 83 86 85 87 89 88 84 83 80 77 76 74 81 78 81 84 84 83 85 87 87 85 85 81 66 55 53 57
91 98 95 67 61 61 64 67 62 65 85 85 85 87 86 85 81 82 82 79 81 78 84 84 82 82 79 78 78 83 83 81 78 78 77 69 63 55
91 80 63 61 59 61 58 63 60 82 83 81 80 77 78 79 81 79 82 84 85 86 89 86 83 80 79 77 76 77 74 75 76 73 72 69 66 67
74 84 80 68 63 71 76 69 83 85 84 76 72 73 77 77 78 85 83 88 87 87 90 87 83 80 78 77 75 75 73 66 71 67 63 62 61 64
81 86 87 87 87 86 84 83 81 77 73 72 72 74 73 78 79 85 88 86 84 83 84 86 85 83 79 73 73 73 67 67 64 60 59 56 55 56
81 87 86 84 82 82 79 76 76 72 74 76 77 79 81 84 85 87 86 84 82 82 82 82 82 80 78 66 64 67 66 63 61 59 58 54 52 54
87 86 83 79 76 75 75 74 74 76 78 80 80 85 85 85 82 83 84 83 82 82 80 81 81 77 70 69 71 60 61 61 59 56 55 53 51 52
79 76 74 74 72 72 72 74 77 81 80 79 81 82 84 84 83 83 82 80 78 78 78 80 80 78 72 70 68 69 52 62 57 55 53 54 54 55
76 73 73 75 75 74 73 76 77 75 76 78 78 79 78 78 77 77 76 60 65 73 73 76 74 66 76 76 71 71 63 52 57 61 58 56 55 55
78 80 78 76 75 75 76 76 76 73 73 75 74 75 74 73 73 73 71 71 71 70 72 70 75 73 75 75 74 69 67 67 57 55 55 57 63 56
77 77 75 74 74 74 75 74 74 75 74 73 73 73 73 71 71 72 73 73 76 73 69 70 69 70 72 77 69 75 67 66 67 65 68 53 55 56

GFSNE_sfc_temp_054.txt.gz
Temp
82 83 82 82 84 85 83 82 78 73 75 80 80 86 84 85 84 81 81 75 73 72 71 70 71 71 73 73 73 73 74 74 74 74 74 75 76 77
84 82 82 83 84 85 84 83 81 78 74 80 82 85 85 89 83 84 85 81 73 72 70 70 70 71 71 72 72 72 72 72 73 73 73 73 73 74
84 84 82 83 82 83 83 82 81 81 77 79 82 83 83 84 84 84 84 82 82 72 71 70 69 70 70 71 70 70 70 71 71 71 72 72 72 73
83 83 84 87 82 82 82 81 82 83 80 76 79 80 81 82 82 81 84 90 85 83 71 69 68 68 68 68 68 68 67 68 69 69 70 71 72 72
84 83 83 83 82 82 82 81 82 82 80 79 78 82 82 83 82 82 81 82 87 82 77 72 68 68 66 66 65 64 62 62 64 65 66 68 69 71
85 84 84 83 82 82 82 81 82 81 80 79 79 80 81 82 82 80 80 82 82 92 87 83 75 71 68 66 65 65 61 60 60 61 62 64 65 67
84 85 85 84 79 80 85 81 81 81 81 81 80 79 79 79 78 80 79 80 82 82 86 83 85 84 79 69 70 69 66 63 61 59 59 60 61 62
82 84 85 79 79 74 72 73 77 79 78 79 79 78 77 79 79 80 79 78 75 83 79 82 83 82 84 85 76 69 67 64 62 61 59 58 59 60
83 83 85 91 80 85 74 72 72 71 72 79 77 77 77 78 79 78 78 78 78 82 80 79 81 81 83 88 73 70 67 64 63 61 60 59 58 58
84 84 83 83 84 84 84 83 80 81 79 78 77 79 80 81 80 81 79 78 79 81 80 75 80 80 81 82 74 71 68 65 64 63 61 58 56 55
83 84 84 84 77 72 81 80 80 81 78 68 71 70 70 69 71 75 77 77 75 77 79 76 78 78 78 78 79 71 68 63 64 62 63 59 55 53
82 82 72 79 71 66 78 81 79 80 82 83 83 79 70 74 65 72 77 73 74 73 77 74 76 76 72 76 75 76 75 67 64 63 61 59 58 65
84 85 86 68 65 63 64 81 80 80 79 81 82 83 82 83 81 79 79 77 75 75 78 76 75 74 72 71 72 73 74 70 71 69 63 59 57 57
84 88 86 66 63 63 65 67 63 64 80 80 80 80 81 80 80 80 79 78 79 77 78 78 75 72 69 67 67 71 72 69 68 66 65 61 58 57
86 77 63 61 60 59 60 64 61 75 78 78 79 80 80 79 78 79 80 78 78 79 81 80 75 73 70 67 66 67 64 65 66 63 61 61 59 58
72 78 74 71 64 68 71 66 76 79 79 79 78 77 76 76 76 76 76 78 78 77 80 78 76 73 70 69 66 65 64 60 63 61 60 60 58 56
76 80 80 80 80 82 82 81 78 79 77 76 74 73 74 75 74 77 78 77 75 74 74 76 75 73 68 67 64 63 61 60 60 59 57 55 54 55
76 79 79 80 81 82 81 76 75 72 73 72 73 74 73 75 76 77 76 75 73 74 74 73 73 72 66 60 61 61 59 58 58 58 56 52 51 53
78 78 80 82 80 77 77 74 73 75 74 73 74 75 75 76 74 75 75 75 74 73 72 72 71 70 65 63 58 55 58 58 57 55 54 52 51 52
76 76 77 76 76 74 73 73 73 74 73 75 73 74 75 75 75 75 74 72 70 69 70 70 70 69 66 64 63 58 52 58 56 55 55 55 55 56
72 71 71 71 69 71 70 72 73 71 70 73 72 72 73 73 71 72 71 61 62 68 67 67 68 64 69 69 64 61 57 51 57 58 57 55 52 53
70 69 69 69 69 69 71 70 70 69 71 73 71 70 71 71 70 69 69 68 67 68 68 70 70 68 67 66 66 63 61 57 54 55 56 56 56 53
68 67 67 68 69 70 70 71 71 71 72 71 71 70 71 69 69 68 67 68 68 67 68 68 69 69 66 67 64 66 63 62 61 57 58 55 55 55

GFSNE_sfc_temp_057.txt.gz
Temp
75 75 75 75 75 76 76 75 72 67 68 74 75 78 79 78 79 76 76 75 72 71 70 70 70 72 72 73 73 73 73 74 74 74 74 75 76 77
77 76 75 75 75 77 76 76 74 72 69 72 76 78 79 83 81 78 79 77 74 71 70 69 70 71 71 71 71 72 72 72 72 73 73 73 73 74
77 75 76 77 76 75 76 75 74 73 70 73 75 76 76 77 79 78 79 79 76 71 70 69 69 69 70 70 70 70 70 70 71 71 72 72 72 73
76 76 77 80 76 75 75 75 74 75 73 71 72 75 76 79 78 78 83 86 77 79 73 70 68 68 68 67 68 67 66 67 68 69 70 71 72 72
77 76 76 76 75 75 75 74 74 76 74 72 72 74 76 76 76 77 77 78 81 79 74 72 71 69 67 65 64 64 62 61 63 64 65 67 69 70
78 78 78 77 76 76 76 75 75 74 73 72 72 72 73 78 75 75 74 75 76 85 82 78 75 74 69 65 65 64 62 60 59 60 61 62 63 66
77 78 78 78 76 76 78 75 75 74 73 73 72 72 71 72 72 73 72 72 74 77 77 77 79 82 79 73 70 69 65 63 61 59 58 58 58 60
78 77 78 77 76 73 72 73 76 75 73 72 72 71 71 71 72 71 71 71 69 77 76 79 78 77 81 77 73 69 66 64 62 61 59 58 58 58
79 79 79 85 76 78 73 71 71 70 72 77 73 74 74 73 73 72 72 72 73 79 76 76 76 75 78 80 72 67 64 64 62 61 60 59 57 57
78 79 80 80 78 77 77 78 76 77 76 75 74 78 77 78 76 78 75 74 76 77 75 71 74 74 76 77 69 67 63 62 63 62 59 58 55 55
79 80 80 79 73 69 75 74 75 75 74 68 69 69 69 68 71 72 72 75 71 73 75 73 73 73 74 72 72 66 64 62 61 59 60 56 56 55
78 75 69 75 69 67 77 79 75 77 74 75 75 69 66 69 65 70 76 70 70 71 74 73 73 73 67 69 69 70 67 61 60 58 57 56 54 58
79 80 80 65 62 62 63 79 77 79 73 74 74 75 75 76 76 72 73 73 71 72 74 74 72 69 66 64 65 66 65 62 61 62 57 55 53 54
81 82 81 68 63 62 63 65 64 64 73 72 72 72 72 73 76 76 75 75 76 76 76 74 71 68 64 62 61 63 62 60 60 59 58 57 56 55
84 78 67 64 61 61 61 62 61 68 72 71 71 72 74 75 74 74 75 76 75 75 77 74 71 67 65 62 61 59 58 58 58 56 56 58 57 56
71 70 68 66 65 67 64 60 67 71 73 74 72 73 72 72 72 73 73 73 72 71 73 73 71 68 64 62 61 58 56 55 54 53 53 54 56 56
71 77 71 70 71 71 72 68 68 71 72 73 73 72 72 72 72 73 73 72 68 67 68 68 63 63 60 62 58 56 55 53 53 52 51 50 54 54
69 74 74 75 74 73 72 74 72 71 74 73 72 72 71 71 71 72 72 68 67 66 65 65 64 62 59 59 61 56 54 53 52 51 50 48 49 54
72 75 74 73 74 73 75 74 73 73 72 72 70 70 71 72 70 69 71 67 65 64 64 64 63 62 59 58 57 56 54 53 52 50 50 48 48 49
72 71 72 70 70 70 71 71 70 70 70 70 68 68 68 70 68 68 64 63 62 62 61 63 62 61 60 59 58 55 49 54 52 51 49 50 51 55
69 68 68 68 68 68 67 67 67 67 68 67 66 66 67 65 64 64 63 58 59 61 60 61 63 63 62 62 58 56 54 52 55 53 51 49 48 47
68 68 67 67 67 67 67 66 65 66 66 66 65 65 64 64 65 64 62 62 62 63 63 63 63 62 61 60 59 58 55 53 53 53 55 55 52 48
68 68 66 66 66 67 65 64 65 65 65 65 63 63 63 63 63 63 64 63 62 61 59 59 61 61 61 61 59 58 60 57 54 54 52 55 55 54

GFSNE_sfc_temp_060.txt.gz
Temp
73 73 72 73 72 72 72 71 70 66 67 72 73 76 74 75 77 76 76 76 72 71 70 69 70 71 71 72 73 73 74 74 74 74 74 75 76 77
74 73 72 72 72 73 73 72 70 70 67 70 73 75 77 81 79 77 77 75 73 71 70 69 69 70 70 71 71 71 71 72 72 72 72 73 73 74
74 74 74 73 73 72 73 72 71 70 68 71 71 74 75 75 76 76 77 76 75 72 72 70 68 68 69 69 69 70 70 69 70 71 72 72 72 72
74 74 74 77 74 72 72 73 72 72 70 69 69 72 74 76 76 76 79 82 77 77 71 69 68 68 68 67 66 66 65 65 66 67 68 69 70 71
75 74 74 74 73 73 73 72 72 74 72 70 70 71 73 74 74 74 76 77 79 77 74 71 70 70 68 65 64 62 60 60 61 62 63 64 65 67
75 75 75 74 73 74 74 73 73 72 71 70 69 70 71 73 72 72 71 72 73 81 78 75 72 73 71 68 67 65 61 59 58 58 59 59 60 62
74 75 75 76 74 74 76 74 73 72 71 71 70 70 70 71 71 71 70 71 72 73 75 76 77 79 77 73 74 69 64 62 61 60 59 58 58 59
74 74 75 74 73 71 70 72 75 73 72 71 71 71 71 70 70 70 69 69 68 75 74 78 76 77 77 76 67 65 63 63 62 61 59 59 58 58
76 77 75 81 74 76 71 68 68 68 72 74 72 71 71 72 71 70 70 70 70 78 75 75 74 74 76 74 65 63 63 61 59 59 57 56 55 55
77 77 76 77 75 75 74 74 74 74 72 72 73 77 77 76 73 76 72 72 74 77 74 70 73 74 74 71 63 63 62 60 60 58 57 56 53 52
78 78 78 77 71 67 75 73 73 74 72 66 67 67 66 65 68 72 72 71 71 70 73 73 72 74 72 70 68 62 61 58 58 57 57 55 53 52
78 77 68 76 66 64 73 74 72 75 73 73 73 69 64 68 64 69 73 70 70 70 73 73 73 70 66 67 65 64 62 58 56 55 56 54 52 55
77 78 78 64 62 61 62 76 75 77 71 72 72 73 73 74 74 71 69 71 69 70 73 73 72 68 65 64 63 62 59 57 57 56 54 53 52 53
78 79 80 64 59 59 59 63 62 62 69 72 71 72 71 72 73 74 75 74 75 75 76 73 71 67 64 60 61 61 58 56 54 53 53 53 53 53
82 76 67 61 59 61 61 62 59 64 69 69 72 73 72 74 75 74 74 75 75 75 75 73 72 66 64 61 61 58 56 55 53 51 51 51 54 55
70 75 70 67 65 69 66 63 64 67 69 71 72 72 72 71 72 72 72 71 71 71 70 70 70 67 63 61 60 57 55 56 52 51 50 50 51 52
68 72 67 67 69 69 69 69 65 66 67 68 70 71 72 72 72 72 70 70 70 69 66 64 60 61 60 61 58 56 54 53 52 50 49 48 49 50
65 71 72 71 71 73 70 71 69 67 70 71 72 73 72 70 70 70 70 69 67 65 64 63 61 61 60 59 60 56 53 52 52 51 49 47 47 49
73 72 72 72 73 72 71 72 72 72 72 72 72 70 70 69 68 69 66 65 63 62 62 62 61 61 58 57 58 57 55 52 51 49 49 48 47 48
71 71 71 71 71 71 70 70 70 70 70 69 68 68 68 68 65 64 64 62 61 61 61 61 61 60 59 58 57 56 52 53 51 50 49 49 50 54
70 70 70 69 69 68 67 67 67 67 67 66 66 66 66 66 64 63 63 58 59 62 60 60 62 61 61 60 57 56 55 51 54 52 50 48 47 47
70 70 69 68 67 66 66 66 65 65 66 66 66 65 65 65 64 64 64 63 61 61 60 60 61 61 60 59 57 57 56 54 53 53 54 55 50 48
68 68 67 66 65 65 64 65 64 65 65 64 63 63 63 63 63 62 61 60 59 59 59 58 59 59 59 58 57 59 60 56 52 51 53 55 55 55

GFSNE_sfc_temp_063.txt.gz
Temp
72 71 71 70 70 70 69 69 69 64 66 70 71 74 74 72 75 75 75 74 73 72 70 69 69 70 71 72 73 73 73 73 74 74 74 75 76 77
72 72 71 71 71 71 71 69 68 68 66 68 71 73 75 78 78 77 77 74 73 72 70 70 69 69 70 70 70 71 71 72 71 71 72 72 73 74
72 72 72 72 71 71 71 71 70 68 67 69 69 72 73 74 75 75 76 75 75 72 70 70 68 68 68 69 68 68 68 68 69 69 70 70 71 71
72 72 72 75 72 71 71 71 70 70 68 67 68 70 72 74 74 74 77 80 76 77 72 70 68 67 67 67 66 65 64 63 64 65 66 67 68 68
73 72 73 72 72 72 71 71 71 72 70 69 70 70 71 71 72 73 74 74 77 76 73 73 71 69 68 66 64 62 59 59 59 60 61 62 63 64
73 73 74 73 72 72 72 72 72 71 70 69 68 68 69 72 71 70 72 71 73 80 77 74 71 71 71 66 66 64 61 59 59 59 59 59 60 61
72 73 74 74 72 72 74 72 71 70 70 69 69 69 69 70 70 70 69 70 70 72 73 74 75 75 75 69 68 66 62 60 59 58 58 57 57 57
72 72 73 73 72 69 69 70 73 72 70 70 70 70 70 70 69 69 68 68 67 73 74 77 74 74 74 65 65 63 61 60 59 58 57 56 56 56
74 74 73 78 72 74 70 68 67 67 70 74 72 71 71 70 70 69 69 68 68 75 74 74 74 72 70 65 63 62 60 59 58 57 57 55 54 54
75 74 74 75 73 73 73 72 72 72 70 71 71 76 74 75 72 72 71 70 71 75 75 70 72 73 68 64 62 61 59 58 57 57 56 54 52 52
76 75 75 74 69 66 73 72 72 73 70 65 66 66 65 64 66 70 69 68 69 72 73 73 72 73 71 65 63 60 58 57 56 56 56 54 51 52
77 74 67 73 65 63 71 73 72 74 72 72 70 66 63 67 63 69 71 70 70 69 73 71 72 71 69 66 63 61 58 57 55 54 54 53 52 52
76 77 77 63 61 60 60 75 74 76 72 70 70 70 71 72 72 69 71 72 70 70 72 74 72 69 68 64 62 60 57 55 54 53 52 52 52 52
78 78 77 62 59 58 59 62 61 62 68 69 69 70 70 71 73 73 74 72 73 73 74 73 72 68 64 61 61 60 57 55 53 52 51 51 52 52
80 75 65 60 57 59 58 60 59 64 68 66 70 71 73 74 72 72 74 75 74 75 75 73 73 67 65 63 61 59 57 56 53 51 50 50 49 51
70 73 70 66 64 68 65 63 65 66 68 69 70 72 69 69 70 72 72 72 71 70 67 65 72 68 63 62 60 58 56 56 53 51 50 49 49 53
68 71 73 68 70 69 68 69 65 64 65 67 67 68 68 69 70 72 72 71 70 67 66 63 61 62 61 61 59 57 56 54 53 51 49 48 48 50
66 72 72 73 72 72 72 70 69 66 67 67 68 68 69 70 70 70 70 70 69 67 66 63 60 60 61 61 62 57 54 53 52 51 49 48 48 49
72 73 73 73 72 71 72 72 71 70 70 70 70 70 70 70 68 68 68 66 64 63 62 61 61 62 58 57 59 58 57 53 52 51 50 48 48 48
72 73 71 71 71 71 71 71 71 72 71 71 71 71 70 69 66 66 66 64 63 61 61 62 61 62 59 58 58 58 52 54 52 51 50 48 50 53
68 71 72 71 72 72 72 72 72 71 72 71 70 69 68 67 65 64 64 58 60 62 62 62 62 61 62 60 57 57 57 50 54 54 50 49 48 47
71 70 71 71 71 71 69 69 68 67 68 67 65 64 64 63 63 63 63 62 61 62 62 62 62 60 59 59 57 57 57 56 52 53 55 56 52 50
68 69 67 66 66 66 66 66 66 65 64 64 63 63 63 62 62 62 62 63 61 60 59 58 58 58 58 58 57 57 57 58 55 53 53 54 54 55

GFSNE_sfc_temp_066.txt.gz
Temp
76 76 76 76 76 76 75 74 74 72 73 77 78 81 81 82 80 83 82 75 72 71 70 70 70 70 71 71 72 72 72 72 72 72 73 74 75 77
76 75 75 76 76 76 76 75 74 74 73 75 78 79 81 84 82 83 82 74 73 71 71 69 69 70 70 70 70 70 70 70 70 70 70 71 71 72
75 75 76 76 76 77 76 76 75 74 74 77 76 79 79 80 82 82 83 83 84 73 71 69 68 68 69 69 68 67 68 67 67 68 68 69 69 70
75 75 76 78 76 76 76 75 76 75 75 73 75 78 78 80 79 79 82 85 83 78 71 69 68 68 67 66 64 64 63 63 64 64 65 66 66 67
76 76 76 76 76 76 76 76 76 77 75 74 75 76 77 79 79 80 80 80 83 77 73 72 71 69 66 64 62 61 59 59 60 61 61 62 63 64
77 77 77 77 76 77 77 76 77 76 75 74 74 75 75 78 77 77 79 80 80 85 80 75 72 71 66 64 63 62 59 57 57 58 58 58 59 60
77 77 77 76 73 74 78 77 75 75 75 74 74 74 75 76 76 77 75 78 79 80 81 84 83 82 75 67 67 64 61 59 58 57 56 56 56 57
75 76 77 73 73 69 68 69 75 76 75 75 75 74 75 75 77 77 75 75 74 81 79 81 82 80 76 72 64 63 61 59 58 58 57 56 55 56
76 76 77 80 73 78 71 67 67 67 69 77 75 76 76 78 77 76 75 74 75 81 78 77 81 76 73 72 62 61 60 59 58 57 57 55 54 54
77 77 77 77 77 77 78 77 78 78 76 75 75 78 79 80 77 79 77 75 76 79 78 75 76 75 72 68 62 61 59 58 57 57 56 54 52 52
77 77 77 77 70 65 77 76 77 77 72 65 66 66 65 64 69 76 75 73 74 78 77 75 78 74 72 66 67 60 58 57 56 56 56 54 52 51
77 76 66 75 65 62 74 76 75 77 79 79 77 70 65 70 62 73 77 73 74 71 77 75 75 75 71 69 67 69 69 57 55 54 54 53 51 63
77 78 78 62 60 59 61 77 75 77 75 77 78 78 78 77 77 73 75 75 74 73 76 76 74 73 72 70 70 71 70 67 68 65 54 51 50 54
77 79 78 61 58 57 59 62 60 62 76 76 75 76 76 77 79 79 77 76 78 78 76 77 73 73 72 69 73 70 69 68 67 67 65 57 53 52
80 75 66 59 57 59 58 60 58 69 73 73 74 75 77 79 79 77 77 78 77 76 75 75 75 74 72 74 74 71 71 68 65 65 65 63 61 61
70 74 71 66 64 69 68 65 69 72 73 73 75 76 76 74 74 76 76 77 75 76 74 73 74 73 71 73 73 71 69 70 65 65 63 63 63 63
70 73 75 73 74 74 73 74 73 71 70 71 71 72 73 73 73 76 75 75 74 76 75 72 69 71 72 72 70 71 68 66 65 64 63 63 63 61
66 73 72 73 74 75 75 75 73 69 73 73 72 72 72 73 73 74 75 75 73 74 75 71 68 68 69 68 67 71 66 66 64 62 61 63 63 61
73 73 73 74 73 74 76 76 74 74 74 74 73 72 73 73 71 73 73 74 73 74 73 71 68 71 68 69 70 61 69 65 62 62 62 60 61 61
72 72 72 73 73 72 72 73 73 74 72 72 72 73 73 72 72 72 72 72 72 71 68 67 67 70 71 70 70 68 54 66 64 64 62 59 59 55
68 71 73 74 73 72 72 73 73 73 73 72 72 73 73 73 73 72 70 59 63 68 67 66 68 62 69 69 66 66 68 51 61 66 63 63 62 59
73 71 72 73 73 73 73 73 72 72 72 72 72 71 68 67 67 66 69 70 68 68 66 65 65 65 64 64 67 65 67 68 55 53 56 60 65 62
74 73 72 72 73 73 73 72 72 71 70 68 67 66 66 65 66 67 68 69 68 66 64 62 62 63 62 62 62 66 65 66 68 66 66 55 54 55

GFSNE_sfc_temp_069.txt.gz
Temp
85 84 87 89 89 89 88 87 85 83 86 89 91 92 93 95 87 93 92 76 73 72 70 70 70 71 72 72 72 72 72 72 72 72 72 73 73 74
87 84 84 88 88 89 89 88 87 86 83 89 91 89 90 93 91 91 92 77 77 73 71 70 69 70 71 71 70 70 70 70 70 71 70 70 71 71
84 84 83 84 88 88 88 88 87 86 84 89 88 90 87 88 90 91 93 93 94 76 72 69 68 69 69 69 68 68 68 68 68 68 69 69 69 69
84 83 84 86 83 84 87 84 85 85 85 81 86 88 86 87 87 87 91 95 93 82 72 70 69 68 66 66 65 64 64 64 65 65 66 66 66 66
85 84 84 84 83 86 85 86 87 86 85 84 84 88 88 89 88 89 88 88 94 81 76 72 70 67 65 63 62 61 59 59 60 60 61 61 63 63
85 85 85 85 84 84 84 84 85 84 85 84 86 86 87 88 87 87 88 92 90 94 87 78 74 67 65 63 63 61 58 57 57 57 58 58 59 60
85 85 86 84 77 79 87 85 84 84 86 85 85 86 87 87 86 88 86 88 89 90 91 93 93 91 81 68 68 64 61 59 58 57 57 56 56 57
84 84 86 77 76 70 69 70 77 82 81 84 86 84 82 84 88 86 86 85 84 93 86 90 93 91 89 87 64 63 61 60 59 58 57 56 56 56
84 85 86 90 79 86 72 68 68 67 70 82 81 82 82 84 84 82 84 84 84 89 87 86 92 89 87 79 63 62 61 60 59 59 57 56 55 54
86 85 84 86 86 85 86 86 86 86 82 82 82 84 85 86 85 85 83 82 85 88 88 82 91 87 84 82 62 62 61 59 59 58 57 55 53 52
86 86 86 85 76 67 83 84 84 85 77 68 68 68 68 66 72 86 84 84 85 88 90 84 89 87 84 82 75 61 59 58 57 57 57 55 52 52
84 84 69 80 68 63 79 83 82 84 87 87 86 75 68 76 63 78 86 84 85 84 90 85 88 83 82 85 80 76 71 57 56 56 55 54 52 77
85 87 88 64 62 59 63 84 82 84 82 85 86 88 89 88 88 83 84 86 86 86 89 86 87 86 82 79 81 80 81 77 77 69 55 54 52 56
84 88 86 63 58 58 61 66 62 65 85 86 87 87 88 89 90 90 87 85 88 85 89 83 85 86 85 80 78 83 81 80 79 79 78 63 53 54
85 80 68 59 56 60 58 61 59 79 82 83 84 86 89 91 88 86 85 84 84 84 86 84 84 81 81 77 79 83 80 80 79 77 77 77 76 76
73 79 76 71 68 75 75 68 77 82 82 83 84 88 89 88 86 87 86 88 86 85 86 83 80 78 75 77 76 80 82 79 77 76 76 75 75 76
76 81 82 81 81 82 83 83 84 83 81 82 84 85 85 85 85 87 86 86 84 85 86 83 80 78 76 74 76 82 83 80 80 77 71 75 75 74
75 81 79 79 78 77 78 82 83 80 84 84 84 84 84 85 85 86 86 85 84 83 82 83 81 77 74 75 72 81 81 80 79 74 72 74 76 74
78 80 80 79 78 78 81 82 84 86 83 83 83 84 84 84 82 84 85 84 84 84 83 79 75 71 69 71 79 58 80 79 77 74 75 75 75 76
78 78 78 77 78 78 80 80 79 83 83 81 82 82 82 82 83 82 82 83 82 81 76 70 69 71 72 76 80 82 52 78 76 76 75 75 73 54
71 75 77 78 77 78 79 79 78 74 74 79 78 80 81 79 79 81 81 65 71 74 70 71 74 66 80 78 73 72 71 54 61 71 76 74 74 74
82 80 79 79 76 76 76 76 77 73 73 74 74 75 75 75 75 76 75 69 67 71 73 78 75 75 74 71 71 71 68 65 56 54 56 58 74 72
79 80 80 79 79 78 76 75 75 75 73 73 73 74 74 72 73 72 70 70 71 73 74 72 71 70 71 69 65 66 66 64 65 62 65 55 55 55

GFSNE_sfc_temp_072.txt.gz
Temp
90 89 91 96 97 97 96 95 90 89 92 92 96 98 99 102 90 97 97 76 76 74 71 70 70 72 73 73 72 72 72 72 72 72 72 72 73 73
93 89 88 95 94 95 95 95 94 91 88 97 97 96 95 98 94 96 96 82 80 76 72 71 70 71 72 71 71 70 71 71 71 71 70 70 70 71
89 89 88 89 93 95 95 95 93 93 89 94 97 97 91 92 93 95 97 98 101 77 73 71 70 70 70 70 69 69 69 68 68 69 69 69 69 69
88 88 88 92 87 88 93 89 92 92 90 85 91 94 92 92 92 91 96 101 98 81 74 72 70 68 67 66 66 65 65 65 65 65 65 66 66 66
89 88 88 88 87 91 90 92 93 92 92 90 90 95 95 95 93 94 94 94 101 84 77 72 68 66 65 63 63 61 59 59 61 61 61 62 63 64
90 90 90 89 88 87 89 88 89 89 90 90 91 93 94 95 94 93 95 98 97 100 91 79 74 66 65 63 63 61 58 58 58 58 58 58 59 61
90 90 90 88 80 82 91 89 88 89 91 91 91 92 93 94 90 94 93 95 95 98 96 97 94 85 79 66 70 65 62 60 59 59 58 57 58 58
88 90 90 81 80 72 71 72 78 85 84 88 90 89 87 89 93 92 92 90 88 99 94 94 99 94 96 93 67 64 63 61 61 60 59 57 57 57
89 89 91 96 84 90 73 69 69 68 70 83 83 85 85 87 87 85 87 87 88 94 92 91 97 93 93 83 64 63 62 61 61 60 59 58 56 56
91 90 89 91 91 89 90 90 89 89 84 86 85 86 88 89 88 89 87 86 89 93 93 88 96 95 95 92 63 63 62 61 61 61 59 57 54 54
90 91 91 90 79 69 88 88 88 90 81 71 71 70 67 67 73 89 89 89 90 93 98 95 94 95 94 90 84 62 61 60 59 61 60 58 54 52
88 88 73 83 71 65 85 86 85 88 91 92 88 79 72 80 66 80 88 87 90 90 97 93 93 95 90 91 91 78 75 59 57 59 60 57 54 79
91 93 94 68 65 61 64 87 85 88 86 90 91 93 94 94 93 88 87 89 90 92 96 94 92 93 93 90 85 88 86 80 78 70 54 57 54 57
90 95 92 65 60 61 64 69 63 67 91 92 93 93 94 96 97 97 92 90 93 89 92 89 90 92 91 90 85 84 81 88 87 85 85 65 54 56
89 84 68 60 56 61 59 64 61 82 86 89 90 91 94 97 95 94 94 92 89 89 91 87 89 89 90 88 86 84 79 84 87 85 85 83 83 82
72 80 79 72 64 74 78 70 80 85 86 88 90 93 95 96 95 96 93 94 92 92 91 89 88 86 86 89 87 84 84 81 85 85 84 84 83 82
79 86 86 86 86 87 87 88 88 86 84 87 89 91 92 93 94 95 94 93 90 91 93 95 87 87 84 80 76 80 84 81 87 85 79 81 84 82
80 83 86 87 88 89 88 89 89 85 90 89 89 90 90 91 92 93 93 91 90 91 92 94 88 81 80 79 74 80 79 80 81 83 81 80 82 85
77 82 85 88 90 90 90 90 89 92 89 90 90 90 90 90 89 90 91 91 90 90 91 93 91 82 76 79 88 64 83 81 86 83 82 81 80 83
76 77 81 88 89 88 89 90 90 91 91 91 90 89 89 89 89 89 90 88 89 90 89 89 83 81 77 80 83 86 56 83 83 81 80 82 76 57
78 80 78 81 83 84 84 86 87 89 88 90 90 90 89 89 87 89 90 72 79 88 83 81 84 71 82 80 77 80 79 54 64 80 79 78 77 79
83 84 84 84 82 83 84 84 82 81 81 82 83 85 80 82 86 88 88 88 88 87 84 82 82 76 76 77 80 81 75 76 61 56 57 61 75 72
82 84 85 83 84 83 81 81 82 83 79 79 79 79 78 74 75 76 76 77 78 81 82 74 70 72 74 75 72 76 72 74 74 67 68 56 55 55

GFSNE_sfc_temp_075.txt.gz
Temp
90 90 90 91 96 97 96 95 90 88 90 92 95 98 100 101 90 98 97 78 79 76 73 73 71 72 73 73 72 72 73 73 73 73 72 72 72 73
93 89 89 92 96 96 96 96 95 91 88 97 97 97 96 97 94 96 96 83 81 77 73 73 73 72 72 72 72 71 72 71 71 71 71 70 70 71
89 91 88 89 93 97 97 96 95 94 89 94 98 97 93 93 94 95 95 97 94 75 73 75 72 71 71 71 70 70 69 69 68 69 69 69 68 68
89 88 89 92 88 88 93 91 91 91 90 85 89 93 92 95 93 92 96 101 100 80 72 73 72 69 67 68 68 66 65 65 65 65 66 66 66 66
90 89 89 89 87 90 90 91 94 92 91 89 89 95 96 97 94 93 94 95 100 82 71 72 69 67 66 64 64 62 60 61 61 61 62 62 63 64
91 91 91 90 88 88 88 88 89 89 90 90 90 92 94 96 96 93 94 98 97 101 89 85 74 68 66 64 63 62 59 59 59 59 59 59 60 61
91 91 92 89 81 82 90 87 88 89 90 90 90 92 93 94 91 93 91 95 95 98 98 98 88 82 77 65 70 66 62 61 61 60 59 58 58 59
88 90 92 82 81 73 73 73 76 83 85 87 89 88 86 89 92 92 91 88 86 97 93 94 98 98 91 88 75 66 63 62 62 62 60 58 58 58
89 90 92 97 84 91 74 72 72 69 70 82 82 84 84 87 87 85 85 87 86 92 91 90 96 95 100 79 65 63 62 62 62 62 62 59 58 57
90 90 89 90 91 89 90 89 86 87 85 86 84 84 86 87 87 88 86 85 88 91 90 86 96 95 98 81 64 63 62 62 62 62 62 60 56 55
89 89 90 90 80 72 88 88 88 89 82 73 74 74 73 71 74 88 87 88 87 91 97 95 96 95 97 89 76 62 61 60 60 61 62 61 56 54
87 86 74 82 72 68 86 87 85 87 91 91 88 78 71 79 67 79 86 84 86 88 94 93 94 94 90 97 83 73 72 59 58 58 58 61 57 71
91 93 93 70 66 63 63 87 84 87 85 88 91 93 93 93 92 88 87 87 86 88 94 93 93 93 92 91 96 83 83 77 74 68 54 55 58 58
89 95 93 66 62 63 66 72 66 68 89 90 91 93 94 95 97 97 91 88 92 87 90 88 88 90 89 89 89 94 87 86 82 83 84 66 54 55
88 84 64 60 57 60 59 64 62 82 86 86 87 89 93 97 93 92 91 89 88 89 92 88 89 87 89 88 88 91 90 88 87 80 86 82 80 75
73 81 78 72 62 70 77 71 79 86 86 86 87 89 93 94 95 96 95 95 95 94 91 89 88 86 86 88 89 89 92 83 86 81 82 85 85 83
75 85 85 85 85 87 89 89 90 87 84 86 87 88 91 93 93 96 95 95 92 91 92 95 88 86 89 84 85 88 88 87 82 83 79 79 84 84
70 82 85 87 88 89 89 90 91 85 90 89 88 88 89 90 91 93 94 93 91 91 91 93 93 83 84 84 78 84 83 81 82 83 81 80 82 85
71 82 84 87 89 91 92 93 93 93 89 91 91 91 90 90 88 90 91 91 90 90 91 93 91 89 78 78 86 71 80 85 82 80 83 82 80 82
75 79 84 86 88 90 91 93 91 90 93 93 92 92 91 91 90 90 90 88 89 90 90 92 91 89 86 83 79 86 59 79 81 78 77 84 72 58
83 83 83 85 86 88 89 88 87 87 86 87 85 85 87 87 89 91 90 72 79 89 88 88 91 77 87 84 79 82 85 58 64 77 78 79 77 77
84 87 84 83 83 86 87 87 86 84 84 83 85 80 82 81 79 79 79 78 86 88 88 91 87 84 81 79 79 79 76 78 63 60 60 64 75 70
82 86 81 81 85 81 83 84 82 85 84 82 82 84 84 82 84 84 81 79 80 81 80 80 81 81 81 80 73 73 73 77 71 70 73 58 56 58

GFSNE_sfc_temp_078.txt.gz
Temp
84 83 82 83 84 85 85 83 79 75 77 83 82 89 88 87 84 88 88 81 79 76 76 73 72 73 73 73 73 73 73 73 72 72 71 71 72 73
84 83 83 82 83 85 84 84 84 80 77 83 84 87 88 90 88 88 88 82 80 77 76 74 73 73 73 73 72 72 71 71 71 70 70 70 70 70
83 83 82 83 82 83 82 83 83 83 78 81 83 86 86 85 87 87 87 86 83 75 77 74 73 72 72 72 71 70 69 69 68 69 69 68 68 68
83 82 83 87 83 82 82 81 82 82 80 77 80 81 82 84 85 84 88 94 87 78 74 72 71 70 68 69 68 67 66 65 65 65 66 66 66 66
84 83 83 83 81 81 81 82 82 83 81 79 78 82 83 85 84 85 84 84 91 81 72 72 70 68 66 65 64 62 60 61 62 62 62 63 64 64
84 85 84 83 81 81 82 80 82 80 80 79 79 79 80 82 83 81 81 82 83 94 87 81 72 68 66 64 64 62 59 59 59 60 60 60 61 61
83 84 85 85 80 80 84 81 80 80 80 79 79 79 79 80 80 82 80 80 81 82 81 81 74 71 68 65 68 66 62 61 60 60 59 58 58 59
81 83 85 81 79 74 73 74 77 79 77 78 79 78 77 79 80 79 78 76 74 82 80 80 82 79 78 72 71 66 63 62 61 61 61 59 59 59
82 82 85 91 80 84 73 72 72 69 72 77 76 77 77 78 79 78 78 77 77 80 79 78 81 80 83 81 69 65 62 61 61 62 63 60 59 58
84 82 83 83 84 83 84 81 80 81 78 77 76 78 79 80 79 80 78 78 80 83 82 77 82 82 80 74 66 64 62 61 60 61 61 62 58 56
84 84 83 83 76 72 81 81 82 83 77 71 72 72 72 71 73 78 77 76 76 79 80 77 78 79 81 72 67 63 61 59 59 59 59 61 58 54
82 82 73 78 71 65 78 81 79 81 83 84 78 73 69 73 67 75 80 77 77 76 81 78 78 78 76 78 72 66 63 58 57 57 57 58 59 58
83 84 86 69 65 63 63 81 80 82 80 81 83 84 84 83 82 80 80 80 78 78 82 79 77 78 76 76 76 70 70 64 63 59 54 55 55 58
82 85 84 66 62 64 66 69 66 68 83 83 83 83 83 83 85 86 83 82 84 82 83 80 79 77 76 76 76 74 74 73 69 70 67 60 53 54
84 79 70 63 60 59 59 62 60 76 80 80 80 81 83 85 83 82 81 81 81 83 85 82 83 81 79 78 76 77 75 75 74 75 76 68 66 62
67 76 74 69 66 68 69 67 70 77 79 79 80 82 83 83 83 84 83 84 83 82 83 84 82 81 80 79 75 78 80 75 76 78 76 73 72 70
63 76 78 79 78 78 80 82 80 77 77 79 80 80 81 81 81 83 83 83 79 79 81 82 83 82 81 79 77 77 78 77 77 76 74 74 75 75
67 71 72 78 79 81 80 80 82 80 82 80 80 80 79 79 80 82 82 82 80 80 80 82 79 77 77 79 77 78 76 75 76 76 75 73 72 73
65 68 71 77 77 76 77 81 83 84 83 84 83 82 81 81 78 80 81 81 80 78 79 80 79 77 73 74 78 69 77 78 74 74 74 71 72 75
68 71 72 75 77 79 77 78 85 86 85 83 83 83 83 83 82 81 81 80 80 80 80 80 79 79 78 78 78 78 62 76 74 73 73 70 62 61
78 77 77 77 77 78 81 79 77 80 81 81 79 81 79 76 76 77 80 67 71 77 78 78 81 73 83 78 74 75 76 59 67 74 73 71 65 64
77 77 78 80 81 79 79 77 77 77 77 80 81 78 79 77 76 77 76 75 74 74 74 75 75 74 74 74 73 74 73 68 60 61 61 63 67 66
77 78 78 77 78 79 79 77 77 77 78 78 79 81 79 77 78 77 77 76 74 75 75 74 75 73 74 73 71 74 74 74 68 65 65 60 60 58

GFSNE_sfc_temp_081.txt.gz
Temp
74 76 75 76 77 77 77 77 76 69 70 77 76 80 80 81 82 83 82 80 75 77 75 73 72 72 73 73 72 72 72 72 72 71 70 71 72 72
77 75 76 76 77 76 76 76 76 74 72 79 81 80 83 86 84 83 83 79 77 74 75 73 72 72 72 72 72 71 71 71 70 70 69 69 69 70
76 76 76 77 77 76 76 75 76 75 74 76 78 80 80 79 81 81 83 82 81 76 73 74 72 71 71 71 70 70 69 69 69 69 69 68 68 68
76 75 76 81 76 76 75 75 74 74 74 72 73 75 76 79 79 79 83 88 83 81 72 72 70 69 68 68 67 67 66 66 66 66 67 67 66 66
76 75 76 76 75 74 74 75 75 77 75 72 73 75 76 78 78 79 80 80 85 83 72 70 69 68 67 65 64 63 61 61 62 63 63 64 64 64
77 77 77 77 76 75 75 74 74 74 73 72 72 73 74 78 76 76 77 77 78 86 80 73 70 68 67 65 64 63 60 59 59 60 60 61 61 62
76 78 78 78 77 76 78 75 74 72 72 71 70 71 72 74 74 75 74 74 76 77 75 77 71 69 67 66 67 66 61 60 59 59 58 58 59 60
75 75 78 78 76 73 73 74 76 74 72 71 71 71 72 73 74 73 72 70 69 75 74 78 75 74 73 68 68 65 62 61 60 59 58 59 59 59
76 77 78 85 77 79 72 71 71 70 73 74 71 71 70 71 71 70 70 70 70 75 73 75 77 76 80 75 66 65 63 61 60 59 59 58 58 58
78 78 78 79 78 77 77 76 76 77 72 73 73 77 74 78 73 75 72 72 72 74 75 72 77 75 82 75 66 65 63 61 60 59 58 58 58 56
77 76 77 77 74 69 75 75 75 76 74 68 70 70 70 69 72 72 71 69 72 75 72 72 78 71 74 72 68 64 63 60 59 58 58 58 58 54
75 76 69 74 68 66 74 77 74 77 75 78 72 71 68 70 66 72 77 71 72 72 77 72 73 70 70 72 65 62 60 58 57 57 57 57 56 59
77 79 80 66 62 62 62 79 78 81 77 77 78 79 77 74 75 72 75 77 75 75 79 75 71 70 70 71 69 63 64 60 61 58 54 54 54 57
75 80 81 65 61 60 62 66 63 66 78 80 79 79 79 78 79 80 79 78 81 81 84 76 74 75 71 68 69 68 63 64 62 64 63 58 53 54
68 69 61 58 59 59 58 60 60 69 73 75 77 79 81 83 83 78 79 76 79 80 81 81 79 79 72 77 72 70 70 68 66 67 66 64 61 57
63 66 66 65 64 68 67 65 64 68 72 74 77 80 81 79 78 80 79 80 79 79 78 80 79 79 78 77 74 76 70 69 69 70 72 69 65 64
62 65 69 71 72 75 76 77 77 70 70 74 76 77 77 78 78 80 79 79 74 76 77 76 78 80 80 78 71 73 74 71 70 71 70 71 69 70
59 63 66 70 73 74 74 74 75 74 74 76 76 76 76 77 77 78 78 76 75 76 76 77 72 72 72 74 74 78 71 73 72 71 71 71 71 69
58 60 63 69 73 72 73 73 74 72 73 79 76 76 77 77 74 76 76 75 74 72 73 72 72 70 67 72 73 67 74 76 73 70 71 70 70 71
56 61 65 68 70 72 74 75 76 76 73 74 73 75 74 73 74 75 75 75 75 75 75 71 71 70 73 74 72 73 60 77 72 72 70 64 60 58
65 62 66 69 70 72 71 72 73 74 75 74 73 73 73 73 73 74 74 65 69 75 74 72 69 65 70 72 70 70 73 58 67 72 69 66 61 60
66 68 70 72 70 71 72 72 72 72 73 73 75 73 73 72 72 72 71 71 69 69 72 70 70 71 71 70 70 68 70 68 61 61 61 64 66 62
65 67 69 69 69 69 70 70 71 72 72 73 74 74 72 72 73 74 72 71 70 70 71 71 70 69 70 70 69 70 70 70 63 63 62 58 59 61

GFSNE_sfc_temp_084.txt.gz
Temp
73 73 73 73 74 74 74 73 72 67 69 75 74 77 78 79 81 81 81 78 75 73 72 71 71 72 72 72 72 72 72 72 71 71 71 71 71 72
73 72 73 74 75 74 74 73 72 71 69 72 76 77 80 83 82 81 81 76 76 73 72 70 70 71 72 71 71 71 71 71 70 70 69 69 69 69
72 73 74 74 74 74 73 73 73 72 70 74 74 77 78 77 79 78 79 80 80 75 73 71 69 69 70 70 69 70 70 69 69 69 69 69 68 67
74 72 73 78 74 74 73 72 72 72 71 69 71 74 75 76 76 76 81 85 81 79 72 69 68 68 67 67 67 66 66 67 67 67 67 68 67 67
74 73 73 73 72 73 72 72 72 74 72 71 71 72 74 74 76 76 76 77 82 79 76 68 68 67 66 65 64 63 61 61 62 63 64 65 65 65
75 74 74 74 73 73 73 72 72 71 70 70 69 70 71 73 73 73 74 74 76 84 75 71 70 68 67 64 64 63 60 58 58 59 60 61 62 63
74 75 75 76 74 74 75 73 71 71 70 69 69 69 70 71 71 73 71 71 72 73 73 72 70 69 68 66 67 67 63 60 59 58 58 57 58 60
73 74 75 75 74 71 70 71 74 72 71 69 69 69 70 71 71 71 69 67 66 72 71 71 72 72 72 69 68 66 63 62 60 59 58 57 57 57
74 74 75 81 75 77 72 69 68 68 72 73 70 70 69 70 70 68 67 67 68 73 71 72 72 74 76 75 67 65 63 62 60 59 59 57 56 56
75 75 75 76 76 75 76 74 74 74 73 73 74 78 74 78 72 74 71 69 70 71 72 70 73 73 78 73 68 65 63 61 60 59 58 57 55 54
75 75 76 76 72 66 75 75 75 76 73 66 68 68 67 67 70 69 68 68 68 71 69 69 74 69 70 72 72 63 61 59 59 58 58 57 54 54
71 73 67 74 66 64 71 75 73 76 76 77 74 67 65 69 64 72 74 68 67 70 71 69 67 69 69 70 68 65 60 57 57 57 57 56 54 57
69 73 77 65 60 60 61 77 76 79 77 74 76 78 74 72 74 71 72 74 71 72 76 72 68 66 68 69 69 66 63 60 59 57 53 53 52 56
71 74 75 61 56 56 59 62 61 62 73 75 76 75 75 77 78 77 75 74 78 80 82 74 70 71 66 65 66 69 63 63 61 61 61 57 52 53
67 66 59 56 55 59 60 59 59 65 68 69 71 74 78 81 82 76 77 78 77 77 78 77 76 78 71 75 72 68 68 67 63 63 61 61 62 58
63 68 65 62 59 63 64 68 66 69 70 72 74 76 78 78 78 79 77 78 76 77 78 78 78 76 75 74 74 74 70 69 67 64 65 64 64 63
53 60 62 66 67 69 71 72 73 72 68 71 73 74 75 76 77 78 77 76 74 75 76 77 73 76 77 75 70 73 75 70 71 69 65 66 66 65
52 57 59 63 66 69 70 71 74 72 75 73 71 73 74 74 75 76 76 75 73 74 74 75 69 67 70 72 73 75 71 72 73 70 68 68 69 68
52 55 58 62 64 65 66 70 72 72 72 71 70 70 71 74 73 74 75 74 72 73 74 74 69 67 66 67 74 66 75 75 71 69 70 70 71 71
49 55 58 61 63 65 67 69 72 74 72 72 71 72 72 71 70 70 70 69 69 70 71 69 68 70 70 71 69 71 59 76 70 71 69 65 62 58
57 59 60 62 64 66 68 67 68 69 71 71 71 72 71 71 71 71 70 62 65 70 70 69 70 64 69 69 67 68 70 56 63 71 68 66 64 63
56 58 62 64 66 66 67 68 68 68 69 70 71 71 71 71 70 71 70 68 69 70 70 72 69 67 65 66 68 67 66 67 61 59 56 60 65 63
56 58 59 60 62 64 65 67 67 69 70 70 69 70 71 70 71 71 70 71 71 71 70 69 68 68 68 68 66 69 68 68 65 64 63 58 57 56

GFSNE_sfc_temp_087.txt.gz
Temp
71 71 71 75 76 72 71 70 69 66 68 73 72 76 77 77 79 79 78 76 74 73 71 70 70 71 73 73 73 73 73 72 72 71 71 71 71 72
71 71 71 73 76 76 72 72 70 69 67 70 74 76 78 80 80 78 80 75 74 73 71 70 69 70 71 72 72 71 72 71 71 70 70 69 69 69
71 71 72 72 72 75 75 72 71 70 69 72 72 74 75 76 78 77 77 77 78 74 71 70 68 69 69 69 69 69 70 70 70 69 69 69 68 68
72 70 72 75 72 72 72 74 71 71 70 69 70 72 74 75 76 75 78 81 79 77 71 70 68 67 67 67 66 66 66 66 67 68 68 68 68 67
72 71 72 71 70 71 71 71 70 72 70 69 69 70 72 72 74 75 75 76 80 78 75 71 68 67 66 65 64 63 61 61 62 63 65 66 66 66
73 72 71 72 71 71 71 71 70 69 69 69 68 68 69 72 71 71 72 72 74 81 74 71 70 69 67 65 64 64 60 59 58 59 60 61 63 64
73 73 73 73 72 72 73 72 70 69 68 68 67 68 68 68 69 70 69 70 69 70 70 71 70 70 70 68 69 68 64 61 59 58 58 58 58 60
72 73 74 73 73 69 68 69 72 71 69 68 68 68 68 68 69 69 68 66 65 69 69 71 70 70 71 70 69 67 65 62 61 60 58 57 57 57
71 72 73 79 73 75 72 69 68 67 68 73 70 70 69 70 69 68 66 66 65 69 69 69 70 71 74 73 67 66 64 62 61 60 59 58 57 56
72 73 72 74 73 73 74 73 73 74 72 70 72 76 74 76 71 72 69 67 67 68 71 67 70 70 74 73 67 66 63 61 60 59 59 57 55 54
70 71 73 73 69 65 69 72 74 75 73 65 67 67 66 65 68 68 67 66 70 69 69 68 68 68 67 71 71 64 61 59 58 58 58 57 54 53
70 70 65 69 66 62 68 72 72 74 76 75 73 67 64 68 64 69 74 68 70 69 70 68 66 67 67 69 68 69 68 60 56 55 57 56 53 57
69 70 71 64 57 56 56 70 73 73 75 73 74 75 74 71 72 68 71 73 72 70 75 71 68 65 66 68 68 69 67 65 62 59 53 53 52 57
68 70 69 59 55 55 56 58 57 59 67 70 72 73 74 75 76 75 73 73 76 78 81 74 69 70 66 64 65 69 66 65 62 64 61 56 52 53
64 62 58 55 53 57 60 59 58 64 64 66 69 71 74 77 78 77 75 75 74 75 77 77 75 77 69 73 73 72 67 67 62 64 62 61 60 57
56 58 58 58 57 59 60 64 66 66 68 70 71 74 76 75 74 76 76 77 71 74 77 76 76 74 73 75 74 72 72 67 66 64 64 62 62 62
48 53 56 59 61 63 65 66 68 68 67 68 69 71 73 74 74 75 75 75 73 73 75 76 72 75 75 74 69 70 71 69 70 69 64 65 65 65
47 51 55 58 60 62 63 65 67 68 71 70 69 69 70 71 72 73 74 72 71 72 73 75 69 65 66 69 71 72 69 69 72 69 67 67 69 68
49 51 52 56 58 59 61 62 64 65 67 69 70 71 71 71 68 70 72 71 71 71 73 74 67 66 65 64 69 65 71 72 70 68 69 68 69 72
50 53 54 56 57 59 60 62 64 67 68 68 68 70 71 71 70 70 69 69 69 70 70 71 69 68 66 67 68 69 58 75 69 69 68 69 67 57
50 51 54 55 57 60 61 62 63 64 65 66 66 67 69 70 70 71 71 62 64 69 69 69 70 66 69 67 66 68 68 57 62 69 69 66 66 64
50 51 53 54 56 57 57 59 60 61 63 65 67 68 69 69 69 70 70 70 70 69 69 71 70 67 66 66 67 68 66 66 59 59 59 62 66 64
50 52 51 52 53 54 53 53 54 56 58 62 62 62 67 68 68 68 69 69 69 69 68 68 69 68 68 67 66 67 66 66 65 63 62 56 58 56

GFSNE_sfc_temp_090.txt.gz
Temp
76 76 76 77 78 77 77 76 75 73 75 79 79 82 84 85 83 86 84 77 73 72 70 69 70 71 72 74 73 73 73 73 72 72 71 71 72 72
76 76 75 77 78 78 77 77 76 75 75 77 80 82 83 86 84 83 83 75 74 72 70 69 70 70 71 71 71 72 72 72 71 71 71 70 70 70
75 75 76 76 77 78 75 77 77 77 76 78 78 80 81 81 83 83 84 85 85 72 71 70 69 68 69 69 69 69 70 70 71 70 70 70 69 69
75 74 75 78 76 76 77 77 77 77 77 75 77 79 79 81 80 80 84 87 85 79 72 70 69 68 67 66 66 66 66 67 67 68 69 69 69 68
75 75 75 75 75 76 75 76 76 77 76 75 76 77 78 79 79 81 81 81 85 78 75 72 70 69 66 65 64 62 61 61 62 64 65 66 67 68
74 75 75 75 75 76 76 75 76 75 75 74 75 75 76 78 77 77 79 80 80 86 79 73 70 70 69 66 65 64 60 59 59 60 60 62 63 65
75 76 76 75 72 73 77 75 74 74 75 74 73 73 75 76 76 78 77 78 78 78 78 82 82 82 82 73 73 70 65 62 59 58 59 58 59 60
74 76 77 72 73 69 68 69 73 75 74 74 75 74 75 74 77 77 75 74 75 79 78 79 80 81 82 83 72 67 66 63 61 59 58 58 58 58
75 75 77 81 74 77 69 67 67 67 70 77 75 76 75 78 76 75 74 73 75 79 76 78 81 80 83 87 69 67 65 63 61 60 59 58 57 57
75 76 76 77 77 76 77 77 77 78 75 75 75 77 78 79 77 79 77 75 75 76 76 73 82 80 83 83 69 65 63 62 60 59 58 57 55 54
73 74 75 75 69 64 73 74 75 77 74 65 66 66 66 64 69 77 75 73 76 79 77 77 81 78 80 81 82 67 63 61 59 58 58 56 54 53
72 73 65 68 63 60 70 73 73 75 77 78 79 73 66 71 63 72 77 74 76 75 81 76 78 77 78 82 81 81 83 64 59 56 56 55 53 68
66 68 70 59 56 55 56 69 70 72 71 73 75 77 78 79 79 76 75 76 76 76 80 79 79 78 76 78 81 81 82 81 79 74 54 53 52 61
60 62 62 56 53 54 57 59 58 59 69 71 73 74 76 77 80 79 78 76 79 78 81 77 78 79 78 76 75 82 80 80 79 79 80 63 51 52
57 58 55 53 54 58 59 59 58 69 70 70 72 73 77 78 78 78 79 78 77 77 79 78 78 78 78 76 77 79 78 81 79 77 79 76 76 70
57 56 56 55 55 59 60 67 71 71 71 71 72 75 76 76 77 78 76 78 77 78 79 78 77 77 76 77 78 77 80 74 78 78 77 77 76 74
48 55 58 61 63 64 66 68 69 71 71 73 72 72 73 75 75 77 77 76 73 75 77 80 78 78 78 76 76 78 77 77 78 76 73 75 78 77
51 53 56 58 59 61 62 63 66 66 69 70 69 70 72 72 73 74 74 73 73 75 76 78 78 74 73 76 73 76 78 77 78 76 75 73 76 80
50 53 54 56 57 59 61 62 63 66 65 66 67 68 70 73 71 72 72 71 71 72 75 77 76 74 70 69 79 66 77 78 77 74 75 72 75 80
50 51 51 53 55 57 58 60 63 64 65 66 68 69 69 69 69 71 72 71 70 70 71 73 74 72 68 71 75 80 57 77 76 76 75 76 75 62
50 50 51 53 54 55 56 57 58 60 60 61 61 62 66 66 66 68 68 60 63 70 69 69 73 67 74 73 69 70 72 55 68 74 74 73 73 73
47 48 50 51 52 52 53 54 55 57 57 58 59 60 62 64 64 65 67 68 70 71 73 75 74 73 70 68 68 71 73 73 59 56 58 63 70 70
46 46 47 47 48 50 50 52 53 54 56 57 58 59 60 60 61 62 65 67 69 69 69 69 69 70 69 69 66 69 70 72 70 65 64 57 58 57

GFSNE_sfc_temp_093.txt.gz
Temp
85 85 88 90 90 90 89 88 86 84 87 90 92 93 95 97 89 94 93 78 73 72 71 70 71 72 73 74 75 75 75 74 74 73 73 72 72 73
87 84 84 89 89 90 90 90 89 87 85 91 93 92 92 96 92 93 93 78 74 73 71 71 71 72 71 72 72 73 73 73 73 72 71 71 71 71
83 83 84 84 89 90 89 88 88 88 85 90 90 92 88 89 91 92 94 93 95 74 72 71 70 70 70 71 70 70 70 71 71 72 71 71 70 70
83 82 83 87 83 84 88 84 86 86 85 81 87 89 87 88 87 87 92 97 95 84 73 71 70 69 68 68 66 66 66 67 68 69 70 70 70 70
84 83 84 83 82 86 84 86 88 86 86 84 85 88 88 89 88 89 88 89 95 82 77 75 72 70 68 67 65 63 61 61 63 64 66 67 68 68
84 83 83 84 83 83 84 83 85 84 85 84 85 86 87 88 87 86 87 91 90 94 86 79 73 72 71 68 67 67 62 59 59 60 61 63 64 66
85 85 85 81 75 77 85 83 83 81 85 85 85 86 86 87 86 88 86 88 89 90 90 93 94 94 93 82 81 72 67 63 60 59 59 59 60 61
82 82 84 75 76 69 68 69 75 81 80 83 85 84 81 84 87 86 86 85 83 94 85 89 94 92 94 96 76 71 66 64 62 60 58 58 58 59
81 82 83 90 80 84 72 68 68 66 69 79 80 81 81 83 82 81 83 84 83 89 88 86 92 91 94 97 73 68 65 63 62 60 59 58 58 58
81 81 81 82 82 81 83 83 84 84 81 83 81 83 85 86 83 84 82 81 84 88 88 81 91 90 93 94 75 69 65 64 63 60 58 57 55 55
77 79 78 79 62 61 77 81 82 84 79 67 67 67 66 65 69 83 84 84 84 88 91 85 87 89 89 90 92 72 66 63 62 60 59 57 54 53
73 70 62 62 58 57 69 75 76 81 81 83 84 79 71 78 64 76 84 83 84 84 90 85 87 88 84 92 93 92 93 64 59 58 58 57 53 77
70 72 72 59 56 55 56 67 69 68 72 77 82 85 86 87 88 88 84 83 83 84 89 86 84 85 85 85 89 91 92 91 92 86 56 54 52 66
62 64 64 55 52 53 58 60 55 59 79 81 82 82 84 85 88 88 86 85 86 83 86 84 84 85 84 84 84 91 92 92 92 89 90 72 53 53
61 57 54 52 53 61 61 59 57 78 79 79 80 81 84 85 83 83 84 84 82 83 85 83 83 84 83 81 82 85 84 89 91 90 88 88 88 88
57 65 61 55 54 59 67 73 77 77 75 76 78 81 82 83 83 85 84 85 84 84 87 86 83 81 81 83 82 81 85 83 89 89 88 88 88 88
53 66 68 68 69 71 71 72 72 74 74 76 76 77 78 80 81 84 83 82 80 80 83 87 86 83 83 81 80 84 84 85 88 87 85 84 87 88
59 62 64 65 65 66 67 68 71 70 71 73 74 75 75 77 78 80 82 79 74 77 76 80 83 83 84 84 77 82 84 85 87 87 84 83 83 88
59 58 58 61 62 63 65 65 66 69 68 70 70 73 75 76 75 77 78 79 80 81 82 82 75 72 69 70 83 67 83 85 86 86 86 85 84 86
59 58 58 60 59 58 61 62 62 63 64 66 65 68 69 69 68 71 75 74 74 76 73 77 77 74 73 72 73 81 58 80 82 83 84 86 86 66
56 56 56 57 57 58 58 57 57 58 60 62 64 65 66 67 67 69 71 61 64 70 70 72 79 70 79 78 69 73 77 57 70 80 81 82 82 83
55 55 55 55 54 54 54 56 57 57 58 60 60 62 63 64 65 66 65 64 69 71 71 76 79 77 72 72 68 71 76 81 70 58 59 63 76 76
53 54 53 53 53 53 52 52 54 55 55 55 56 57 58 53 54 55 56 61 65 67 69 70 74 75 73 72 66 69 73 73 72 69 70 58 57 58

GFSNE_sfc_temp_096.txt.gz
Temp
90 89 91 97 98 98 96 95 91 89 93 94 97 98 101 104 92 99 98 79 75 73 72 72 72 73 74 75 76 76 76 75 75 75 74 74 74 74
93 90 88 95 94 96 96 96 95 92 89 97 98 97 97 99 95 97 97 83 78 76 72 72 72 73 73 74 74 74 74 74 74 73 73 73 73 73
89 88 87 89 92 96 96 95 94 94 90 95 98 98 92 93 94 95 97 97 101 77 74 74 72 72 72 72 72 71 71 71 72 72 72 72 72 72
88 88 87 92 88 88 93 90 92 91 90 85 91 93 92 92 93 91 96 101 99 84 78 75 72 71 70 69 69 68 67 67 68 69 70 71 71 71
88 88 87 88 86 90 90 91 93 93 92 90 90 94 95 95 93 93 93 94 100 84 79 73 75 73 70 67 66 65 62 62 63 65 66 68 69 70
89 89 88 88 87 86 88 87 89 88 90 89 90 92 94 95 94 93 94 97 97 100 91 84 81 79 73 70 68 68 63 60 59 60 62 63 65 66
88 89 90 86 78 79 89 88 86 87 90 90 90 92 92 93 90 93 92 94 94 98 98 97 99 100 99 78 80 72 69 65 61 59 59 59 61 62
86 87 88 81 79 71 70 70 75 80 83 86 88 88 86 88 92 91 91 89 87 98 93 94 99 97 100 102 77 72 69 66 63 61 59 58 58 59
86 86 88 94 83 88 74 69 68 67 69 80 81 84 82 85 85 84 85 86 87 93 91 90 96 95 100 102 75 72 69 66 63 61 60 59 58 57
86 85 85 84 68 74 86 88 89 89 84 86 86 85 85 87 85 86 84 84 88 93 93 89 96 94 97 100 77 73 69 66 64 62 60 58 56 55
79 72 75 74 59 60 79 83 85 87 82 68 68 67 66 66 70 85 85 87 88 91 96 94 95 95 95 97 99 74 70 66 63 62 61 59 55 54
79 73 61 65 56 56 73 77 78 81 81 81 84 82 73 77 65 78 87 85 87 88 94 92 92 93 88 96 99 99 99 66 62 60 61 59 55 79
82 82 81 58 54 53 53 74 74 72 76 81 86 89 91 92 94 84 84 80 85 86 92 86 88 89 85 87 93 97 99 97 98 88 58 57 54 65
62 68 69 55 52 53 58 60 58 59 82 85 86 87 88 90 92 92 87 87 88 85 87 85 83 84 83 84 86 93 96 98 98 97 97 78 55 54
67 63 54 53 53 59 56 59 57 82 84 83 84 85 87 89 86 86 88 88 87 87 91 88 86 85 83 80 82 86 86 92 95 95 96 96 95 93
64 71 68 61 58 64 67 71 74 78 79 79 81 84 85 86 86 88 88 89 88 89 91 91 89 85 83 80 78 82 84 82 89 92 94 94 92 95
54 74 75 75 75 76 77 76 77 78 76 78 79 80 81 82 83 86 86 86 84 85 86 90 89 87 89 84 83 85 84 86 88 84 83 84 91 94
64 67 69 68 70 71 73 74 75 73 76 75 76 77 77 79 80 81 83 82 82 83 84 87 88 87 87 87 78 86 88 88 87 84 87 86 87 92
70 68 64 65 66 63 65 69 70 71 68 72 72 74 74 74 74 76 77 78 79 82 83 85 84 83 77 78 87 68 85 87 87 85 83 77 78 86
68 67 66 66 65 64 65 63 64 64 66 67 68 70 71 72 72 72 74 73 75 76 77 80 80 80 79 79 80 85 60 84 84 84 85 87 84 72
66 65 65 65 64 63 63 62 61 63 62 61 65 66 67 68 68 70 70 61 62 71 71 74 80 66 80 83 79 81 85 62 73 83 83 82 80 82
64 63 63 62 61 61 60 60 60 61 62 62 62 62 62 63 64 64 65 64 64 65 68 73 76 78 77 76 77 77 81 86 76 59 61 67 77 70
61 61 60 60 61 60 60 59 60 60 60 60 60 60 60 59 60 61 61 61 62 63 64 67 70 73 73 74 72 77 76 79 83 83 83 62 59 59

GFSNE_sfc_temp_099.txt.gz
Temp
91 90 91 95 98 97 97 96 92 80 79 70 86 76 86 97 90 99 97 81 79 76 74 73 74 75 75 76 76 76 76 76 76 76 75 76 76 76
93 90 90 93 95 96 97 97 95 92 88 86 95 95 97 99 94 96 95 83 84 76 74 75 75 75 75 75 74 74 74 74 74 74 74 74 74 74
89 88 89 89 91 94 94 96 95 94 90 94 95 88 93 94 95 95 95 95 99 77 75 74 75 74 74 74 73 72 72 71 72 72 72 73 73 73
88 88 88 92 89 88 92 88 90 90 89 82 88 92 90 94 93 92 95 100 99 82 76 76 75 73 71 71 70 69 68 67 68 69 70 71 72 72
89 89 89 88 87 89 88 89 92 93 91 90 88 93 94 96 93 93 93 94 99 83 79 75 75 74 72 69 68 66 64 63 64 65 66 68 69 70
90 90 89 88 87 88 88 87 89 88 89 89 90 92 93 94 95 92 93 97 96 101 93 85 83 78 73 71 70 68 64 62 61 61 62 63 65 67
89 89 90 87 77 79 88 86 83 86 88 89 89 91 92 87 86 92 91 93 93 97 97 97 99 99 97 78 79 73 68 65 62 61 59 59 60 62
86 88 89 81 80 74 72 72 75 81 81 84 85 84 82 86 88 88 87 87 83 95 91 92 96 96 98 100 80 75 69 67 64 62 60 59 59 59
84 84 87 85 80 86 74 69 70 68 70 80 80 82 82 84 83 82 83 84 84 90 88 89 96 95 100 101 75 72 72 70 66 63 61 59 58 58
84 83 82 78 67 70 77 83 87 88 81 82 84 85 85 85 84 83 83 82 86 90 90 85 96 95 100 101 74 72 72 70 68 64 61 59 57 56
75 75 80 78 59 59 76 81 82 83 77 68 70 68 67 66 71 82 83 84 85 89 94 89 88 91 93 96 98 76 69 67 66 65 64 61 57 56
81 72 60 65 56 56 69 77 78 81 81 80 82 81 75 81 67 75 80 79 77 81 90 79 89 88 86 93 95 96 98 67 63 63 63 62 58 76
67 70 74 58 55 54 53 71 73 68 74 79 83 88 90 91 93 79 79 81 82 82 89 83 86 87 87 86 92 94 96 95 95 81 59 58 56 66
69 70 64 56 53 53 58 59 57 61 79 83 85 86 87 88 90 89 84 85 88 84 86 84 83 84 83 81 82 89 92 94 94 94 95 83 58 56
73 66 57 54 54 57 59 58 58 72 79 79 76 80 85 87 84 85 86 86 86 86 91 85 85 85 84 80 82 84 83 87 90 88 90 92 91 73
65 70 69 64 57 61 63 75 79 79 76 75 71 78 83 83 83 86 84 86 85 86 88 88 86 85 85 87 87 85 88 84 87 89 88 89 91 92
54 71 76 76 76 77 77 78 79 78 77 77 76 77 78 79 80 83 82 82 80 81 83 87 85 85 87 81 83 85 85 85 90 86 82 85 87 85
62 69 70 70 68 70 71 72 74 72 72 71 74 74 74 75 75 76 78 78 77 78 79 82 83 83 84 85 78 83 86 86 88 86 85 85 85 88
68 72 71 69 70 70 69 66 65 66 63 67 68 68 71 72 72 73 74 75 74 75 77 78 77 76 74 74 82 72 82 83 82 83 85 85 84 86
72 70 69 69 68 67 67 66 66 67 67 64 64 65 67 66 66 68 69 69 70 70 69 72 74 75 70 68 72 78 66 79 80 80 82 85 85 73
70 69 68 68 66 66 65 64 63 64 63 64 65 64 64 62 62 63 63 57 59 66 66 67 71 63 71 73 71 75 80 67 66 78 80 77 80 82
67 67 66 65 64 64 63 63 63 63 63 63 63 63 63 62 61 60 61 59 60 61 61 63 64 65 64 66 67 68 72 77 73 70 67 65 77 75
65 65 64 64 64 63 62 61 61 61 61 61 60 60 59 58 59 59 59 59 60 59 59 59 61 62 61 61 61 66 67 72 77 76 79 70 61 61

GFSNE_sfc_temp_102.txt.gz
Temp
79 83 82 83 84 85 84 82 77 65 61 66 66 71 71 71 73 87 88 80 79 76 75 76 75 75 76 76 75 75 75 75 75 75 75 75 76 77
83 82 81 83 83 84 83 82 82 77 68 67 68 72 72 74 75 87 88 81 81 78 75 77 76 75 75 75 74 73 73 73 73 73 73 73 74 74
82 82 81 83 82 82 82 82 80 80 77 75 77 73 72 73 87 88 87 86 86 76 76 77 76 75 75 74 73 72 71 71 71 71 72 72 73 73
83 83 83 87 82 82 81 80 81 81 79 76 80 81 81 84 84 84 89 95 87 85 76 75 75 73 73 72 71 70 69 68 68 68 70 71 71 72
83 82 83 81 81 81 80 80 81 82 79 78 77 80 81 83 81 82 84 86 91 86 74 74 72 73 72 70 69 67 65 64 64 65 65 67 69 70
84 85 84 84 81 81 81 80 81 79 79 77 78 79 79 81 81 79 80 81 82 92 87 82 78 76 73 71 69 68 64 62 62 62 62 62 64 66
83 82 84 77 76 74 81 79 78 76 76 77 77 79 78 79 77 79 78 80 81 80 82 83 86 86 86 81 74 72 69 67 63 61 61 60 60 61
80 81 82 76 77 72 72 72 74 76 75 74 74 75 75 75 79 79 77 77 75 81 80 81 84 85 86 87 82 75 71 68 66 64 61 59 59 59
79 79 80 75 69 71 73 68 69 68 68 74 75 76 76 77 78 76 76 75 76 80 79 79 84 84 84 91 75 74 74 70 67 64 63 61 59 58
78 77 76 67 62 64 70 77 79 80 78 76 75 77 78 79 77 78 76 77 79 81 81 74 83 80 83 84 76 72 70 69 66 65 63 61 58 57
71 66 71 65 59 59 71 72 75 77 71 67 66 66 66 65 68 75 76 74 75 77 81 74 78 81 82 81 83 74 69 65 65 64 64 62 59 56
69 65 60 60 57 56 64 67 70 71 68 70 74 75 74 77 70 72 76 72 72 74 78 74 75 76 75 79 81 83 83 75 63 63 61 61 58 67
69 68 68 58 55 54 54 63 67 62 68 70 73 77 80 81 82 76 78 75 72 72 80 77 75 77 75 77 78 80 82 82 84 80 64 58 57 62
67 68 65 56 53 53 56 60 57 60 70 72 73 73 74 75 77 72 73 77 78 77 79 77 74 73 74 75 75 79 80 81 79 80 82 73 60 55
67 61 57 55 55 57 58 58 59 67 68 67 67 68 70 72 75 75 74 73 74 76 83 77 76 77 77 75 75 76 76 80 82 78 80 80 80 73
58 61 62 59 57 61 63 69 70 70 68 68 67 69 71 71 71 72 71 71 71 72 74 75 73 73 74 75 75 75 77 75 80 77 79 77 78 79
48 58 64 65 66 65 66 66 68 66 63 64 65 66 67 68 68 69 69 68 66 67 69 72 71 71 71 70 71 73 75 76 79 77 75 76 77 79
57 64 64 66 64 64 62 62 62 62 61 62 61 62 62 63 63 66 67 66 65 66 66 67 66 67 68 70 70 66 67 69 72 73 73 73 75 79
56 67 65 65 64 64 64 63 62 62 62 61 60 59 61 61 59 60 61 61 60 60 61 63 63 62 59 57 64 63 64 67 69 71 72 71 72 76
63 65 64 64 63 62 62 61 61 61 60 60 60 60 60 59 59 58 58 57 56 56 57 59 59 57 52 53 54 60 60 65 67 66 66 71 72 67
66 65 64 64 62 61 60 60 59 59 59 59 59 58 58 58 56 57 57 54 54 55 54 55 57 58 58 58 54 56 60 59 60 60 63 65 65 67
64 63 62 62 61 60 59 59 59 58 58 58 57 56 55 55 54 53 53 52 53 53 54 55 56 57 55 54 53 53 55 58 60 60 61 62 63 60
62 61 61 61 61 59 58 58 57 57 56 55 54 53 52 51 52 52 52 52 51 50 50 51 53 53 52 52 52 52 52 53 56 57 58 61 61 62

GFSNE_sfc_temp_105.txt.gz
Temp
74 74 74 74 79 76 71 67 68 64 64 65 65 70 71 71 72 71 72 76 77 76 74 74 75 74 74 74 75 75 75 74 74 74 74 75 76 77
74 75 75 75 77 77 76 73 74 67 66 66 68 70 71 73 74 73 76 76 78 79 76 72 74 74 73 73 73 72 72 73 72 72 72 72 73 74
75 75 75 78 78 76 76 75 75 76 73 74 72 71 72 73 78 75 79 82 83 77 75 73 72 74 73 72 72 71 71 70 70 71 71 72 72 72
76 73 75 81 75 75 74 73 73 74 73 70 72 73 70 73 75 76 83 89 88 83 74 71 71 72 72 71 70 70 69 68 68 68 69 70 71 71
76 75 76 76 74 75 74 73 73 75 72 70 71 73 75 78 81 79 79 81 85 82 80 77 71 70 70 69 68 67 65 64 65 65 65 66 68 69
76 76 76 76 75 74 75 73 73 72 71 70 70 72 74 76 76 74 74 76 75 85 81 78 76 75 72 70 69 69 65 63 62 62 62 62 64 65
74 77 74 74 72 72 74 73 72 71 70 69 68 69 69 70 70 72 71 72 73 74 75 82 82 83 83 79 80 76 69 65 64 62 61 60 60 61
73 74 72 69 69 68 68 68 69 70 69 69 69 69 69 70 72 71 71 70 69 74 74 78 79 80 83 81 79 76 73 67 65 63 62 61 60 59
72 72 71 67 63 65 68 69 69 67 69 70 69 69 70 71 72 71 71 70 70 77 74 73 78 76 81 84 76 74 71 70 67 65 63 61 60 58
67 69 64 60 59 62 67 70 71 68 68 70 69 69 70 70 71 72 72 71 72 74 72 70 74 74 78 80 74 72 69 67 65 64 63 61 58 57
60 64 61 58 59 60 65 65 67 67 67 67 66 65 64 64 66 67 68 68 68 69 74 70 72 72 75 75 77 72 68 67 63 62 62 61 58 56
62 60 61 59 56 56 61 61 62 63 62 66 69 71 70 72 68 68 69 67 67 66 72 69 71 69 67 72 79 76 77 72 65 64 63 61 57 63
62 62 62 58 55 54 55 60 61 59 63 64 66 68 68 69 70 68 66 68 67 66 74 69 68 68 67 70 70 73 75 76 77 75 68 63 60 60
58 59 58 55 53 54 56 58 56 58 62 64 66 65 66 69 70 67 67 69 68 67 70 69 66 65 66 68 69 76 76 73 72 74 77 70 65 58
55 55 55 54 55 58 59 59 58 61 60 61 60 60 63 65 66 68 69 68 67 68 74 67 68 67 66 64 66 69 70 74 75 76 76 76 75 72
51 51 55 56 58 58 60 61 61 60 57 55 56 59 62 63 62 64 61 65 59 64 66 68 66 65 63 65 65 64 65 63 69 69 71 73 75 76
45 51 57 57 57 56 57 56 57 56 57 56 55 56 58 59 58 60 61 59 57 56 57 61 64 64 62 59 57 59 60 61 64 65 67 67 71 72
47 50 53 54 54 54 53 53 54 55 52 54 53 54 54 55 55 58 58 56 54 54 53 56 58 56 55 55 61 58 56 57 60 63 64 61 62 67
47 51 52 53 52 52 51 51 51 51 51 52 51 52 54 55 54 54 54 54 52 52 54 56 54 51 48 46 52 58 54 56 58 56 57 58 57 60
49 52 51 51 51 50 50 50 50 50 50 50 51 51 51 51 50 49 49 48 48 49 49 51 50 50 47 47 49 54 56 55 55 53 53 56 58 60
52 52 52 53 51 51 50 49 49 49 48 47 48 48 48 47 46 47 47 47 47 46 45 46 48 54 52 52 47 48 52 54 55 53 54 52 51 54
51 52 52 51 51 50 49 49 48 47 46 46 46 46 45 45 44 44 45 44 44 44 44 46 49 49 47 45 43 44 47 50 53 55 56 55 52 48
50 50 50 49 49 48 48 47 47 46 45 44 43 42 42 42 42 43 43 43 43 43 44 42 44 45 45 45 44 43 44 46 47 47 49 55 56 56

GFSNE_sfc_temp_108.txt.gz
Temp
71 72 72 72 73 72 69 67 68 64 65 68 67 69 69 70 71 71 71 74 73 72 72 72 71 72 73 74 73 73 74 74 74 74 74 75 76 77
72 72 72 72 73 73 72 69 71 67 65 67 69 68 71 73 73 72 75 74 74 72 72 72 71 72 72 72 72 72 72 72 72 72 72 72 73 74
73 72 73 73 73 74 73 72 71 70 67 71 70 71 72 73 76 74 75 76 79 75 72 73 71 70 70 71 70 70 70 70 70 71 71 71 72 72
74 73 73 77 72 72 71 71 71 71 70 67 70 70 70 73 74 74 80 84 82 79 72 72 71 70 69 68 68 67 67 68 68 68 69 70 70 71
73 72 73 73 72 72 72 71 71 73 70 68 69 70 72 74 74 79 78 76 82 78 76 74 72 72 70 68 67 66 63 62 63 64 65 66 68 69
74 74 73 73 72 72 73 71 71 70 69 68 67 68 70 72 72 70 71 72 72 80 76 75 73 73 71 69 69 69 65 63 60 60 61 62 63 65
74 74 70 70 69 68 69 70 71 68 68 67 66 67 67 68 68 70 70 70 71 71 72 78 78 78 78 74 75 74 67 65 62 60 59 59 60 61
72 72 68 68 68 67 67 67 68 70 68 67 67 67 67 68 70 70 69 68 68 72 71 74 75 74 76 76 71 69 67 67 64 63 61 59 59 59
69 69 68 67 63 64 66 68 67 66 66 67 67 67 67 69 70 69 68 68 68 73 71 69 73 72 75 81 70 68 67 65 64 64 62 61 59 59
65 63 60 59 58 62 66 66 67 66 65 68 65 66 66 67 66 68 67 68 69 71 71 67 71 71 73 75 70 68 65 65 65 63 62 60 57 56
60 61 60 59 59 59 64 64 64 65 66 65 64 63 62 62 64 66 66 66 65 67 71 68 69 68 69 71 74 70 65 65 63 62 62 60 57 56
59 60 60 59 56 56 62 60 61 61 60 63 66 67 66 67 65 64 65 64 64 64 67 64 66 65 64 68 72 73 76 67 64 61 62 61 57 67
59 60 60 57 54 54 54 58 58 57 61 62 63 66 66 67 69 66 61 61 59 61 67 63 64 62 61 63 66 70 73 74 72 72 64 61 59 59
57 57 57 54 52 54 56 55 56 59 59 59 59 59 59 60 61 62 63 62 63 62 63 63 57 56 55 56 58 66 67 67 68 67 68 64 62 60
56 54 53 52 55 57 57 57 58 56 55 55 52 52 53 55 56 57 59 59 58 61 63 59 58 57 55 54 56 57 58 60 64 62 63 65 66 65
52 53 56 57 57 56 58 57 57 55 53 51 51 52 54 55 56 55 55 57 52 54 57 59 57 56 53 53 52 50 53 51 57 58 60 61 63 65
50 57 58 54 54 54 53 53 53 52 52 49 50 50 53 54 53 53 54 52 50 51 52 55 56 53 53 49 48 49 49 52 55 55 56 55 57 59
50 50 50 50 51 50 49 49 49 51 48 50 48 49 49 50 51 52 52 49 47 48 49 51 52 49 49 49 56 47 48 52 54 54 54 51 51 55
48 50 49 50 48 48 48 48 47 47 48 48 48 47 48 48 47 47 47 46 45 45 46 47 46 44 41 41 48 54 49 51 51 50 51 50 49 52
48 49 51 49 48 47 47 47 46 47 45 46 45 45 45 45 45 43 44 42 43 42 42 43 43 43 41 41 43 47 51 48 48 46 47 49 52 55
47 48 48 48 47 47 46 45 45 45 43 43 41 41 41 41 41 42 42 43 42 41 39 40 43 49 45 46 41 43 47 51 50 46 47 45 45 46
47 47 47 47 46 46 45 44 44 44 41 41 41 41 41 40 40 40 40 41 42 44 44 45 45 46 45 44 42 43 44 47 51 52 52 50 44 41
47 47 46 46 45 45 45 44 43 42 41 40 39 38 38 38 38 38 45 45 45 44 43 42 42 44 43 43 42 42 43 43 45 44 47 52 52 52

GFSNE_sfc_temp_111.txt.gz
Temp
71 71 71 70 69 70 68 66 66 62 64 68 67 70 68 69 71 71 71 73 72 72 71 69 71 71 71 73 73 73 73 73 74 74 74 75 76 77
71 70 70 71 71 71 71 68 68 66 64 67 69 68 70 73 75 74 74 73 73 71 70 69 70 71 71 72 72 71 72 72 72 72 72 72 73 74
71 71 71 71 71 71 71 70 69 67 66 69 68 70 71 73 75 75 76 76 76 73 71 70 71 71 71 70 69 69 70 70 70 71 71 71 71 72
72 71 71 75 71 70 70 70 69 69 68 66 68 69 71 72 73 73 78 82 76 77 71 71 70 69 69 69 68 68 66 66 66 67 69 70 71 71
73 72 73 72 71 71 70 70 70 71 68 67 67 68 70 70 71 73 74 73 78 77 74 73 70 69 68 66 66 64 62 61 61 62 64 66 67 69
73 73 73 72 71 71 71 70 70 69 68 67 66 66 67 70 69 69 69 71 71 78 75 73 72 71 70 67 69 67 63 61 60 61 61 61 63 64
73 73 71 70 69 68 70 70 69 67 67 66 66 66 67 67 67 69 68 69 70 70 70 72 72 73 74 73 73 69 66 64 62 61 60 59 59 60
71 70 69 69 68 67 67 66 67 67 67 66 66 66 66 67 68 68 68 66 65 72 69 71 72 72 74 74 68 67 65 65 64 63 61 60 59 59
71 69 67 66 63 65 66 66 65 65 66 68 66 66 66 68 66 65 65 66 66 69 69 68 70 70 73 75 67 66 65 64 63 62 61 60 59 57
65 65 62 61 59 63 65 66 64 63 63 64 62 62 63 63 63 65 65 65 67 68 66 65 68 68 71 71 66 67 64 63 62 61 61 59 57 57
60 61 62 60 59 60 64 63 63 62 65 62 62 61 61 62 63 65 63 63 63 65 64 60 65 64 66 67 70 66 64 61 60 61 60 59 56 59
60 60 60 58 56 56 60 60 60 59 60 62 62 63 63 64 64 58 58 57 60 57 60 57 60 60 59 64 65 69 69 61 60 59 59 58 56 67
59 59 58 55 53 54 56 59 58 57 60 59 59 60 60 61 62 61 58 56 55 52 59 56 56 55 55 58 61 64 65 62 62 61 58 56 56 57
56 56 56 52 52 54 55 55 55 57 55 55 55 53 52 53 54 56 55 58 58 54 54 53 50 49 49 51 52 57 59 56 57 56 58 58 57 57
54 54 53 52 53 55 56 56 56 54 54 53 50 49 49 50 52 51 53 53 52 55 57 52 49 48 48 46 47 49 49 51 55 54 55 55 55 56
53 55 55 55 55 54 54 54 53 52 51 50 49 48 49 50 51 49 48 49 48 48 52 53 51 48 44 45 46 45 46 45 51 52 53 53 52 52
51 54 54 52 52 51 51 51 50 50 49 48 48 47 48 49 49 48 47 44 44 44 46 49 50 48 47 45 44 44 44 48 50 50 49 48 51 50
53 51 49 50 49 49 47 47 46 49 46 47 46 45 45 45 44 45 45 42 41 42 43 44 44 43 44 46 52 43 46 46 47 48 48 45 46 49
49 49 52 49 48 47 46 47 46 45 44 44 43 43 45 44 42 42 42 41 41 39 39 40 41 40 37 37 43 52 44 44 45 44 45 44 43 46
46 48 47 47 46 46 45 44 44 44 44 43 42 41 41 41 40 39 40 38 38 38 37 38 40 42 38 39 40 43 49 44 44 43 43 46 48 52
46 46 46 45 44 44 43 42 42 41 40 39 38 39 40 39 38 38 38 42 41 38 38 39 41 49 45 42 40 43 45 50 49 46 46 44 43 44
45 46 45 45 44 44 42 41 40 40 38 37 37 37 37 37 37 37 39 38 38 39 38 39 43 46 46 44 42 44 44 47 50 52 52 51 45 40
45 45 44 44 43 42 41 40 39 39 38 37 37 36 37 36 37 37 39 38 38 37 37 37 40 44 45 44 42 42 44 46 47 45 47 52 52 52

GFSNE_sfc_temp_114.txt.gz
Temp
75 75 75 74 74 75 72 72 72 70 70 75 75 77 76 77 78 80 79 73 71 70 69 70 71 72 72 73 72 72 73 73 74 74 74 75 76 77
75 74 74 75 76 75 75 72 74 72 70 72 77 75 77 81 81 81 81 75 73 71 70 70 70 70 71 71 71 71 71 71 72 72 72 72 73 74
75 74 75 75 76 76 76 75 74 73 72 75 75 77 77 78 81 81 83 83 83 71 70 70 69 69 69 70 69 69 68 68 69 70 71 71 72 72
75 74 75 77 74 75 75 74 75 74 74 72 74 75 76 78 78 79 81 85 82 75 70 69 68 68 68 67 66 65 63 64 65 66 68 70 71 71
76 74 75 75 74 74 74 75 75 75 74 73 74 74 76 77 77 78 79 79 83 76 74 72 69 68 67 65 65 63 60 61 61 62 63 66 67 69
75 75 76 75 74 74 74 74 74 73 72 72 72 72 73 75 75 74 75 77 77 82 78 74 71 70 70 66 66 65 62 61 60 60 60 61 62 64
74 75 74 71 69 69 73 73 73 72 71 72 71 71 73 73 72 73 72 74 76 77 77 79 79 80 79 74 73 67 64 63 61 60 60 59 59 61
73 73 70 69 69 67 66 66 68 71 71 70 69 70 71 71 73 71 71 70 70 77 74 78 79 79 78 77 66 65 64 63 62 61 60 59 59 59
71 69 68 67 65 68 66 65 65 64 66 71 70 70 69 70 68 69 70 70 71 71 72 75 77 76 78 76 64 63 62 62 61 60 59 59 57 58
65 65 63 62 62 63 70 69 67 67 67 70 67 66 65 65 67 70 69 70 72 68 64 69 73 74 76 76 63 63 61 60 60 59 59 57 55 57
61 64 62 61 59 60 67 67 67 66 64 61 61 61 60 60 61 71 69 70 70 67 63 61 67 69 73 73 72 62 59 58 57 57 58 57 55 57
62 61 59 58 57 57 64 65 65 64 67 66 65 64 63 63 61 62 64 65 65 65 62 62 64 64 67 72 68 67 67 57 56 55 56 55 53 66
63 63 62 55 53 54 57 65 63 64 62 63 63 63 62 62 62 62 61 61 60 56 59 60 60 62 62 63 67 65 64 61 61 61 56 53 53 55
61 61 59 52 52 53 57 54 55 59 62 61 60 58 58 59 59 59 58 58 59 56 57 56 57 56 57 59 59 61 61 60 59 58 59 56 55 54
59 57 54 52 53 56 56 56 56 59 60 59 57 55 56 57 57 57 58 57 56 57 58 54 54 54 55 55 55 55 54 58 57 56 56 57 57 59
57 59 57 56 55 56 57 57 58 58 58 56 55 56 57 56 54 55 54 55 54 54 54 54 52 53 55 54 54 53 54 52 54 54 54 56 57 58
54 57 58 56 56 56 56 56 56 55 54 54 54 54 53 53 52 53 52 52 50 49 49 51 52 53 55 54 54 52 51 52 53 52 51 52 55 56
56 57 54 56 56 55 55 53 53 52 52 53 52 52 51 51 50 51 51 50 48 47 48 48 49 52 53 53 54 50 51 50 52 52 52 50 51 55
57 57 56 55 54 54 54 53 52 51 51 52 51 51 50 49 49 48 48 49 48 47 47 48 48 48 47 46 51 51 48 50 51 51 52 51 50 52
55 55 54 54 53 53 52 52 51 50 50 50 50 50 50 49 48 47 48 47 47 47 47 48 48 47 45 43 46 51 49 50 50 49 50 52 54 54
54 54 54 54 54 53 52 51 50 49 49 49 48 48 48 48 47 48 48 45 46 47 46 46 48 49 52 53 50 50 53 51 51 50 50 48 48 50
54 54 54 53 53 51 50 50 49 48 48 48 47 47 47 48 47 47 48 47 47 47 46 48 49 50 50 48 47 48 51 54 54 53 53 51 47 42
54 54 53 53 52 51 50 49 49 48 48 47 47 47 47 47 47 47 48 47 46 46 45 45 48 51 50 50 48 48 50 50 51 51 53 53 53 53

GFSNE_sfc_temp_117.txt.gz
Temp
84 83 86 88 87 88 86 86 84 81 84 89 89 89 91 92 85 91 91 74 73 72 71 70 70 72 72 73 73 73 73 73 74 74 75 76 77 78
86 82 83 87 87 87 87 86 85 84 81 88 90 88 88 92 89 90 90 79 74 72 71 70 70 71 71 71 70 70 70 71 72 72 72 73 74 75
84 82 82 84 86 87 86 86 85 84 82 87 87 88 85 86 89 90 91 91 92 72 70 70 69 69 69 69 68 67 67 68 69 70 71 72 72 73
83 82 83 86 82 81 85 83 83 83 82 79 84 86 84 86 85 85 89 93 90 76 71 69 68 68 66 66 65 64 63 64 64 66 68 70 71 72
83 83 82 83 80 84 80 79 83 85 80 80 82 84 84 85 84 85 84 85 91 78 74 71 69 68 66 65 64 62 59 60 61 61 63 65 67 68
80 83 83 82 81 82 81 80 83 78 79 78 80 83 84 84 84 83 84 87 86 91 81 77 74 70 68 65 65 63 60 59 59 59 59 60 62 64
81 80 81 72 69 69 74 79 78 78 77 77 76 80 78 82 78 84 82 84 85 84 88 90 88 86 81 72 71 64 62 61 59 59 58 58 59 60
79 81 76 72 71 67 66 67 70 76 76 75 76 74 77 80 83 81 81 81 81 82 79 84 87 82 80 75 63 62 61 60 59 59 58 58 59 59
76 79 75 72 70 71 67 66 66 65 67 77 77 78 76 77 75 76 78 79 80 78 80 77 85 81 81 74 62 61 60 59 59 58 57 57 56 57
69 71 71 65 63 67 70 69 69 72 74 81 76 73 72 73 75 79 77 77 76 77 74 80 81 82 80 73 61 60 59 58 58 57 56 56 54 54
64 65 68 66 60 60 68 68 69 70 63 61 61 61 60 60 65 81 81 80 79 76 72 74 76 77 81 78 75 59 58 57 56 56 57 55 53 56
70 68 59 64 57 58 73 74 72 72 74 73 73 69 68 67 64 70 77 78 78 75 66 70 75 74 76 76 70 73 74 59 56 56 55 55 52 72
74 73 74 56 54 56 58 73 71 72 67 72 73 73 73 72 72 70 68 72 75 70 65 69 71 73 73 74 77 72 72 69 70 68 58 54 53 56
73 73 70 53 53 55 63 55 57 65 74 73 72 70 70 70 69 68 65 65 65 63 62 62 69 68 69 72 71 70 70 69 68 67 67 61 57 56
71 62 55 52 52 58 56 56 60 68 70 62 69 67 66 67 66 65 63 62 62 63 64 60 63 64 67 66 67 65 63 67 66 64 64 66 66 67
62 64 60 60 56 62 64 67 67 66 65 66 66 65 66 66 64 66 65 66 66 64 62 59 58 61 66 65 64 62 63 60 63 63 61 65 66 66
63 68 68 66 62 59 59 65 62 65 66 66 65 63 63 63 63 64 63 65 63 62 62 63 61 61 62 61 64 61 61 61 62 61 61 62 65 65
62 67 66 67 66 65 65 62 61 62 57 60 58 63 63 59 62 62 62 62 61 60 60 60 62 65 63 58 58 59 61 60 61 61 62 60 61 65
65 66 66 66 65 64 64 65 63 63 60 62 63 62 61 61 63 60 61 62 60 61 60 60 60 60 61 61 62 55 57 59 60 61 61 60 59 62
67 68 68 67 66 66 65 65 62 61 61 61 61 61 62 62 61 61 61 60 61 61 60 60 59 58 56 55 56 61 51 58 58 57 58 61 62 57
67 67 67 66 65 64 63 62 61 61 60 61 61 61 62 62 60 62 57 49 53 61 59 57 56 49 60 61 59 61 62 52 54 56 57 57 56 58
66 66 65 66 64 63 61 61 60 58 59 60 60 61 60 61 60 59 61 61 60 61 60 61 60 62 61 58 56 56 60 61 59 56 55 53 54 50
65 66 65 65 64 63 62 61 61 61 60 60 59 59 59 59 60 60 61 60 60 60 59 60 62 62 60 58 54 57 56 58 60 59 60 56 54 54

GFSNE_sfc_temp_120.txt.gz
Temp
90 89 90 95 95 95 94 93 89 85 89 94 94 95 97 98 87 96 95 73 74 73 71 71 71 72 72 72 72 72 73 73 74 74 75 76 78 79
92 89 87 93 94 94 94 94 93 89 86 95 96 95 93 95 92 95 95 82 74 73 72 71 70 71 71 70 69 69 70 70 71 72 73 73 74 76
88 87 86 88 91 94 94 93 92 92 86 92 95 96 89 90 91 93 95 94 88 70 71 69 68 68 68 67 66 66 66 67 68 70 71 73 73 73
87 87 87 91 87 86 90 88 89 89 88 82 88 90 89 90 89 88 93 98 95 73 70 68 66 66 65 64 63 62 62 62 63 65 67 70 71 72
88 87 87 87 85 87 85 85 86 88 84 83 85 88 91 92 90 90 89 90 96 76 70 67 66 66 64 63 62 60 59 59 60 61 62 64 66 68
87 87 86 85 85 85 85 83 76 77 80 83 82 82 87 91 89 89 90 93 92 97 78 79 74 68 65 63 63 62 59 58 58 58 60 61 62 63
86 85 86 81 70 73 80 79 76 83 86 86 83 80 76 82 79 82 88 90 83 90 83 77 77 87 80 71 70 62 60 59 58 57 57 58 59 60
83 84 82 72 72 68 68 68 72 78 78 75 79 80 79 77 83 87 87 87 79 81 84 88 88 84 81 74 61 61 60 59 58 58 57 56 58 59
82 83 80 86 77 81 67 66 67 67 67 70 75 77 77 81 79 80 81 81 80 85 82 79 89 83 81 72 61 60 59 59 58 57 57 56 55 56
79 79 78 78 69 70 73 74 76 68 70 80 80 75 77 75 78 83 80 80 82 84 79 75 86 83 80 73 61 60 59 58 58 57 57 55 53 54
68 73 70 69 60 61 73 77 73 70 62 61 61 61 61 61 67 84 85 83 73 79 78 80 84 80 84 81 71 61 59 57 57 57 57 56 54 54
76 72 61 69 59 59 77 77 75 77 78 74 73 69 70 70 67 75 80 81 83 82 72 75 81 75 74 81 79 80 80 59 57 55 56 55 53 77
80 79 80 58 56 57 59 78 75 79 73 77 79 81 81 80 78 76 73 76 78 78 68 74 79 79 79 79 82 78 77 74 75 72 56 55 54 58
75 78 74 54 55 56 62 58 59 65 81 80 80 79 80 80 76 73 69 70 70 67 67 66 73 71 73 75 77 77 75 75 73 72 73 64 57 56
75 61 55 52 53 59 57 58 58 79 80 78 73 76 76 73 72 71 69 68 66 68 70 66 70 70 74 73 72 73 69 74 73 71 71 73 72 72
60 71 64 59 54 64 66 68 73 72 73 75 74 73 71 73 74 75 74 74 74 73 68 66 66 68 73 73 72 70 71 68 70 70 68 72 73 73
64 72 71 70 74 74 73 71 64 68 66 62 70 67 73 72 68 72 72 73 72 71 72 72 66 66 68 64 70 69 68 69 70 67 67 68 71 72
66 74 75 75 75 74 73 70 71 66 73 70 72 68 70 70 66 69 70 71 69 68 68 68 69 68 66 62 58 65 68 67 68 68 67 66 67 70
65 70 71 72 73 74 74 74 73 73 68 72 72 70 71 70 66 69 70 70 69 69 69 69 68 66 65 66 63 53 63 65 65 66 66 65 64 67
70 72 73 74 73 71 72 71 70 69 70 70 69 70 69 69 68 69 69 68 68 68 69 68 67 65 63 62 62 67 54 63 63 62 63 65 66 60
75 74 75 75 74 73 72 71 69 69 69 68 69 68 68 68 68 69 65 50 54 66 66 67 63 51 64 67 64 68 67 54 60 61 61 62 61 63
74 73 74 74 73 71 69 68 68 65 65 67 68 67 67 67 67 66 67 66 66 67 67 68 66 66 65 64 63 62 66 66 60 56 55 57 60 56
72 72 72 71 71 70 69 68 68 68 67 67 67 65 66 65 65 67 68 67 68 65 66 64 66 66 65 64 59 63 62 63 65 65 67 55 55 55